Time,TemperatureF,DewpointF,PressureIn,WindDirection,WindDirectionDegrees,WindSpeedMPH,WindSpeedGustMPH,Humidity,HourlyPrecipIn,Conditions,Clouds,dailyrainin,SolarRadiationWatts/m^2,SoftwareType,DateUTC
2013-07-07 00:01:00,70.9,61.4,29.95,SSW,198,0.0,0.0,72,0.00,,,0.00,0,Wunderground v.1.15,2013-07-07 04:01:00,
2013-07-07 00:02:00,70.8,61.3,29.95,SSW,198,0.0,0.0,72,0.00,,,0.00,0,Wunderground v.1.15,2013-07-07 04:02:00,
2013-07-07 00:05:00,70.6,61.5,29.95,SSW,198,0.0,0.0,73,0.00,,,0.00,0,Wunderground v.1.15,2013-07-07 04:05:00,
2013-07-07 00:09:00,70.4,61.3,29.95,SSW,198,0.0,0.0,73,0.00,,,0.00,0,Wunderground v.1.15,2013-07-07 04:09:00,
2013-07-07 00:10:00,70.3,61.2,29.95,SSW,198,0.0,0.0,73,0.00,,,0.00,0,Wunderground v.1.15,2013-07-07 04:10:00,
2013-07-07 00:11:00,70.3,61.2,29.95,SSW,198,0.0,0.0,73,0.00,,,0.00,0,Wunderground v.1.15,2013-07-07 04:11:00,
2013-07-07 00:12:00,70.2,61.5,29.95,SSW,198,0.0,0.0,74,0.00,,,0.00,0,Wunderground v.1.15,2013-07-07 04:12:00,
2013-07-07 00:17:00,69.9,61.2,29.95,SSW,198,0.0,0.0,74,0.00,,,0.00,0,Wunderground v.1.15,2013-07-07 04:17:00,
2013-07-07 00:19:00,69.8,61.1,29.95,SSW,198,0.0,0.0,74,0.00,,,0.00,0,Wunderground v.1.15,2013-07-07 04:19:00,
2013-07-07 00:20:00,69.8,61.5,29.95,SSW,198,0.0,0.0,75,0.00,,,0.00,0,Wunderground v.1.15,2013-07-07 04:20:00,
2013-07-07 00:21:00,69.7,61.4,29.95,SSW,198,0.0,0.0,75,0.00,,,0.00,0,Wunderground v.1.15,2013-07-07 04:21:00,
2013-07-07 00:25:00,69.5,61.2,29.95,SSW,198,0.0,0.0,75,0.00,,,0.00,0,Wunderground v.1.15,2013-07-07 04:25:00,
2013-07-07 00:26:00,69.5,61.2,29.95,SSW,198,0.0,0.0,75,0.00,,,0.00,0,Wunderground v.1.15,2013-07-07 04:26:00,
2013-07-07 00:27:00,69.5,61.2,29.95,SSW,198,0.0,0.0,75,0.00,,,0.00,0,Wunderground v.1.15,2013-07-07 04:27:00,
2013-07-07 00:29:00,69.4,61.1,29.95,SSW,198,0.0,0.0,75,0.00,,,0.00,0,Wunderground v.1.15,2013-07-07 04:29:00,
2013-07-07 00:30:00,69.4,61.5,29.95,SSW,198,0.0,0.0,76,0.00,,,0.00,0,Wunderground v.1.15,2013-07-07 04:30:00,
2013-07-07 00:32:00,69.4,61.5,29.95,SSW,198,0.0,0.0,76,0.00,,,0.00,0,Wunderground v.1.15,2013-07-07 04:32:00,
2013-07-07 00:33:00,69.4,61.5,29.95,SSW,198,0.0,0.0,76,0.00,,,0.00,0,Wunderground v.1.15,2013-07-07 04:33:00,
2013-07-07 00:34:00,69.4,61.5,29.95,SSW,198,0.0,0.0,76,0.00,,,0.00,0,Wunderground v.1.15,2013-07-07 04:34:00,
2013-07-07 00:35:00,69.3,61.4,29.95,SSW,198,0.0,0.0,76,0.00,,,0.00,0,Wunderground v.1.15,2013-07-07 04:35:00,
2013-07-07 00:36:00,69.3,61.4,29.95,SSW,198,0.0,0.0,76,0.00,,,0.00,0,Wunderground v.1.15,2013-07-07 04:36:00,
2013-07-07 00:38:00,69.3,61.8,29.95,SSW,198,0.0,0.0,77,0.00,,,0.00,0,Wunderground v.1.15,2013-07-07 04:38:00,
2013-07-07 00:40:00,69.3,61.8,29.95,SSW,198,0.0,0.0,77,0.00,,,0.00,0,Wunderground v.1.15,2013-07-07 04:40:00,
2013-07-07 00:43:00,69.2,61.7,29.95,SSW,198,0.0,0.0,77,0.00,,,0.00,0,Wunderground v.1.15,2013-07-07 04:43:00,
2013-07-07 00:44:00,69.2,61.7,29.95,SSW,198,0.0,0.0,77,0.00,,,0.00,0,Wunderground v.1.15,2013-07-07 04:44:00,
2013-07-07 00:48:00,69.0,61.5,29.95,SSW,198,0.0,0.0,77,0.00,,,0.00,0,Wunderground v.1.15,2013-07-07 04:48:00,
2013-07-07 00:51:00,69.0,61.5,29.95,SSW,198,0.0,0.0,77,0.00,,,0.00,0,Wunderground v.1.15,2013-07-07 04:51:00,
2013-07-07 00:52:00,68.9,61.4,29.95,SSW,198,0.0,0.0,77,0.00,,,0.00,0,Wunderground v.1.15,2013-07-07 04:52:00,
2013-07-07 00:53:00,68.9,61.8,29.95,SSW,198,0.0,0.0,78,0.00,,,0.00,0,Wunderground v.1.15,2013-07-07 04:53:00,
2013-07-07 00:54:00,68.8,61.7,29.95,SSW,198,0.0,0.0,78,0.00,,,0.00,0,Wunderground v.1.15,2013-07-07 04:54:00,
2013-07-07 00:55:00,68.8,61.7,29.95,SSW,198,0.0,0.0,78,0.00,,,0.00,0,Wunderground v.1.15,2013-07-07 04:55:00,
2013-07-07 00:59:00,68.7,61.6,29.94,SSW,198,0.0,0.0,78,0.00,,,0.00,0,Wunderground v.1.15,2013-07-07 04:59:00,
2013-07-07 01:00:00,68.6,61.5,29.94,SSW,198,0.0,0.0,78,0.00,,,0.00,0,Wunderground v.1.15,2013-07-07 05:00:00,
2013-07-07 01:02:00,68.6,61.5,29.94,SSW,198,0.0,0.0,78,0.00,,,0.00,0,Wunderground v.1.15,2013-07-07 05:02:00,
2013-07-07 01:04:00,68.5,61.4,29.95,SSW,198,0.0,0.0,78,0.00,,,0.00,0,Wunderground v.1.15,2013-07-07 05:04:00,
2013-07-07 01:07:00,68.4,61.3,29.94,SSW,198,0.0,0.0,78,0.00,,,0.00,0,Wunderground v.1.15,2013-07-07 05:07:00,
2013-07-07 01:08:00,68.4,61.6,29.94,SSW,198,0.0,0.0,79,0.00,,,0.00,0,Wunderground v.1.15,2013-07-07 05:08:00,
2013-07-07 01:10:00,68.3,61.5,29.94,SSW,198,0.0,0.0,79,0.00,,,0.00,0,Wunderground v.1.15,2013-07-07 05:10:00,
2013-07-07 01:14:00,68.2,61.4,29.94,SSW,198,0.0,0.0,79,0.00,,,0.00,0,Wunderground v.1.15,2013-07-07 05:14:00,
2013-07-07 01:16:00,68.2,61.4,29.94,SSW,198,0.0,0.0,79,0.00,,,0.00,0,Wunderground v.1.15,2013-07-07 05:16:00,
2013-07-07 01:18:00,68.1,61.3,29.94,SSW,198,0.0,0.0,79,0.00,,,0.00,0,Wunderground v.1.15,2013-07-07 05:18:00,
2013-07-07 01:19:00,68.1,61.3,29.94,SSW,198,0.0,0.0,79,0.00,,,0.00,0,Wunderground v.1.15,2013-07-07 05:19:00,
2013-07-07 01:23:00,68.0,61.2,29.94,SSW,198,0.0,0.0,79,0.00,,,0.00,0,Wunderground v.1.15,2013-07-07 05:23:00,
2013-07-07 01:26:00,68.0,61.2,29.93,SSW,198,0.0,0.0,79,0.00,,,0.00,0,Wunderground v.1.15,2013-07-07 05:26:00,
2013-07-07 01:28:00,67.9,61.5,29.94,SSW,198,0.0,0.0,80,0.00,,,0.00,0,Wunderground v.1.15,2013-07-07 05:28:00,
2013-07-07 01:29:00,67.9,61.5,29.94,SSW,198,0.0,0.0,80,0.00,,,0.00,0,Wunderground v.1.15,2013-07-07 05:29:00,
2013-07-07 01:30:00,67.9,61.5,29.93,SSW,198,0.0,0.0,80,0.00,,,0.00,0,Wunderground v.1.15,2013-07-07 05:30:00,
2013-07-07 01:32:00,67.8,61.4,29.93,SSW,198,0.0,0.0,80,0.00,,,0.00,0,Wunderground v.1.15,2013-07-07 05:32:00,
2013-07-07 01:33:00,67.8,61.4,29.93,SSW,198,0.0,0.0,80,0.00,,,0.00,0,Wunderground v.1.15,2013-07-07 05:33:00,
2013-07-07 01:36:00,67.7,61.3,29.93,SSW,198,0.0,0.0,80,0.00,,,0.00,0,Wunderground v.1.15,2013-07-07 05:36:00,
2013-07-07 01:37:00,67.7,61.3,29.93,SSW,198,0.0,0.0,80,0.00,,,0.00,0,Wunderground v.1.15,2013-07-07 05:37:00,
2013-07-07 01:43:00,67.6,61.2,29.93,SSW,198,0.0,0.0,80,0.00,,,0.00,0,Wunderground v.1.15,2013-07-07 05:43:00,
2013-07-07 01:44:00,67.6,61.2,29.93,SSW,198,0.0,0.0,80,0.00,,,0.00,0,Wunderground v.1.15,2013-07-07 05:44:00,
2013-07-07 01:48:00,67.5,61.1,29.93,SSW,198,0.0,0.0,80,0.00,,,0.00,0,Wunderground v.1.15,2013-07-07 05:48:00,
2013-07-07 01:51:00,67.4,61.4,29.93,SSW,198,0.0,0.0,81,0.00,,,0.00,0,Wunderground v.1.15,2013-07-07 05:51:00,
2013-07-07 01:52:00,67.4,61.4,29.93,SSW,198,0.0,0.0,81,0.00,,,0.00,0,Wunderground v.1.15,2013-07-07 05:52:00,
2013-07-07 01:54:00,67.3,61.3,29.93,SSW,198,0.0,0.0,81,0.00,,,0.00,0,Wunderground v.1.15,2013-07-07 05:54:00,
2013-07-07 01:57:00,67.3,61.3,29.93,SSW,198,0.0,0.0,81,0.00,,,0.00,0,Wunderground v.1.15,2013-07-07 05:57:00,
2013-07-07 01:58:00,67.3,61.3,29.93,SSW,198,0.0,0.0,81,0.00,,,0.00,0,Wunderground v.1.15,2013-07-07 05:58:00,
2013-07-07 01:59:00,67.2,61.2,29.93,SSW,198,0.0,0.0,81,0.00,,,0.00,0,Wunderground v.1.15,2013-07-07 05:59:00,
2013-07-07 02:03:00,67.2,61.2,29.93,SSW,198,0.0,0.0,81,0.00,,,0.00,0,Wunderground v.1.15,2013-07-07 06:03:00,
2013-07-07 02:05:00,67.1,61.4,29.93,SSW,198,0.0,0.0,82,0.00,,,0.00,0,Wunderground v.1.15,2013-07-07 06:05:00,
2013-07-07 02:07:00,67.1,61.4,29.93,SSW,198,0.0,0.0,82,0.00,,,0.00,0,Wunderground v.1.15,2013-07-07 06:07:00,
2013-07-07 02:08:00,67.1,61.4,29.93,SSW,198,0.0,0.0,82,0.00,,,0.00,0,Wunderground v.1.15,2013-07-07 06:08:00,
2013-07-07 02:10:00,67.0,61.3,29.93,SSW,198,0.0,0.0,82,0.00,,,0.00,0,Wunderground v.1.15,2013-07-07 06:10:00,
2013-07-07 02:11:00,67.0,61.3,29.93,SSW,198,0.0,0.0,82,0.00,,,0.00,0,Wunderground v.1.15,2013-07-07 06:11:00,
2013-07-07 02:14:00,67.0,61.7,29.93,SSW,198,0.0,0.0,83,0.00,,,0.00,0,Wunderground v.1.15,2013-07-07 06:14:00,
2013-07-07 02:17:00,66.8,61.5,29.93,SSW,198,0.0,0.0,83,0.00,,,0.00,0,Wunderground v.1.15,2013-07-07 06:17:00,
2013-07-07 02:18:00,66.8,61.5,29.93,SSW,198,0.0,0.0,83,0.00,,,0.00,0,Wunderground v.1.15,2013-07-07 06:18:00,
2013-07-07 02:19:00,66.8,61.5,29.93,SSW,198,0.0,0.0,83,0.00,,,0.00,0,Wunderground v.1.15,2013-07-07 06:19:00,
2013-07-07 02:24:00,66.6,61.6,29.93,SSW,198,0.0,0.0,84,0.00,,,0.00,0,Wunderground v.1.15,2013-07-07 06:24:00,
2013-07-07 02:25:00,66.6,61.6,29.93,SSW,198,0.0,0.0,84,0.00,,,0.00,0,Wunderground v.1.15,2013-07-07 06:25:00,
2013-07-07 02:29:00,66.5,61.5,29.93,SSW,198,0.0,0.0,84,0.00,,,0.00,0,Wunderground v.1.15,2013-07-07 06:29:00,
2013-07-07 02:30:00,66.5,61.5,29.93,SSW,198,0.0,0.0,84,0.00,,,0.00,0,Wunderground v.1.15,2013-07-07 06:30:00,
2013-07-07 02:32:00,66.4,61.4,29.93,SSW,198,0.0,0.0,84,0.00,,,0.00,0,Wunderground v.1.15,2013-07-07 06:32:00,
2013-07-07 02:34:00,66.3,61.3,29.93,SSW,198,0.0,0.0,84,0.00,,,0.00,0,Wunderground v.1.15,2013-07-07 06:34:00,
2013-07-07 02:36:00,66.3,61.3,29.93,SSW,198,0.0,0.0,84,0.00,,,0.00,0,Wunderground v.1.15,2013-07-07 06:36:00,
2013-07-07 02:38:00,66.2,61.6,29.93,SSW,198,0.0,0.0,85,0.00,,,0.00,0,Wunderground v.1.15,2013-07-07 06:38:00,
2013-07-07 02:40:00,66.1,61.5,29.93,SSW,198,0.0,0.0,85,0.00,,,0.00,0,Wunderground v.1.15,2013-07-07 06:40:00,
2013-07-07 02:42:00,66.1,61.5,29.93,SSW,198,0.0,0.0,85,0.00,,,0.00,0,Wunderground v.1.15,2013-07-07 06:42:00,
2013-07-07 02:43:00,66.1,61.5,29.93,SSW,198,0.0,0.0,85,0.00,,,0.00,0,Wunderground v.1.15,2013-07-07 06:43:00,
2013-07-07 02:45:00,66.0,61.4,29.93,SSW,198,0.0,0.0,85,0.00,,,0.00,0,Wunderground v.1.15,2013-07-07 06:45:00,
2013-07-07 02:48:00,65.9,61.6,29.93,SSW,198,0.0,0.0,86,0.00,,,0.00,0,Wunderground v.1.15,2013-07-07 06:48:00,
2013-07-07 02:50:00,65.9,61.6,29.93,SSW,198,0.0,0.0,86,0.00,,,0.00,0,Wunderground v.1.15,2013-07-07 06:50:00,
2013-07-07 02:51:00,65.9,61.6,29.93,SSW,198,0.0,0.0,86,0.00,,,0.00,0,Wunderground v.1.15,2013-07-07 06:51:00,
2013-07-07 02:53:00,65.8,61.5,29.93,SSW,198,0.0,0.0,86,0.00,,,0.00,0,Wunderground v.1.15,2013-07-07 06:53:00,
2013-07-07 02:56:00,65.8,61.5,29.93,SSW,198,0.0,0.0,86,0.00,,,0.00,0,Wunderground v.1.15,2013-07-07 06:56:00,
2013-07-07 02:57:00,65.8,61.8,29.93,SSW,198,0.0,0.0,87,0.00,,,0.00,0,Wunderground v.1.15,2013-07-07 06:57:00,
2013-07-07 02:58:00,65.7,61.7,29.93,SSW,198,0.0,0.0,87,0.00,,,0.00,0,Wunderground v.1.15,2013-07-07 06:58:00,
2013-07-07 02:59:00,65.7,61.7,29.93,SSW,198,0.0,0.0,87,0.00,,,0.00,0,Wunderground v.1.15,2013-07-07 06:59:00,
2013-07-07 03:03:00,65.6,61.6,29.93,SSW,198,0.0,0.0,87,0.00,,,0.00,0,Wunderground v.1.15,2013-07-07 07:03:00,
2013-07-07 03:04:00,65.6,61.6,29.93,SSW,198,0.0,0.0,87,0.00,,,0.00,0,Wunderground v.1.15,2013-07-07 07:04:00,
2013-07-07 03:05:00,65.5,61.5,29.93,SSW,198,0.0,0.0,87,0.00,,,0.00,0,Wunderground v.1.15,2013-07-07 07:05:00,
2013-07-07 03:07:00,65.5,61.5,29.93,SSW,198,0.0,0.0,87,0.00,,,0.00,0,Wunderground v.1.15,2013-07-07 07:07:00,
2013-07-07 03:10:00,65.4,61.4,29.93,SSW,198,0.0,0.0,87,0.00,,,0.00,0,Wunderground v.1.15,2013-07-07 07:10:00,
2013-07-07 03:11:00,65.4,61.4,29.93,SSW,198,0.0,0.0,87,0.00,,,0.00,0,Wunderground v.1.15,2013-07-07 07:11:00,
2013-07-07 03:12:00,65.3,61.3,29.92,SSW,198,0.0,0.0,87,0.00,,,0.00,0,Wunderground v.1.15,2013-07-07 07:12:00,
2013-07-07 03:14:00,65.3,61.7,29.93,SSW,198,0.0,0.0,88,0.00,,,0.00,0,Wunderground v.1.15,2013-07-07 07:14:00,
2013-07-07 03:16:00,65.3,61.7,29.92,SSW,198,0.0,0.0,88,0.00,,,0.00,0,Wunderground v.1.15,2013-07-07 07:16:00,
2013-07-07 03:19:00,65.2,61.6,29.92,SSW,198,0.0,0.0,88,0.00,,,0.00,0,Wunderground v.1.15,2013-07-07 07:19:00,
2013-07-07 03:22:00,65.1,61.5,29.92,SSW,198,0.0,0.0,88,0.00,,,0.00,0,Wunderground v.1.15,2013-07-07 07:22:00,
2013-07-07 03:23:00,65.1,61.5,29.93,SSW,198,0.0,0.0,88,0.00,,,0.00,0,Wunderground v.1.15,2013-07-07 07:23:00,
2013-07-07 03:25:00,65.0,61.4,29.93,SSW,198,0.0,0.0,88,0.00,,,0.00,0,Wunderground v.1.15,2013-07-07 07:25:00,
2013-07-07 03:28:00,65.0,61.4,29.93,SSW,198,0.0,0.0,88,0.00,,,0.00,0,Wunderground v.1.15,2013-07-07 07:28:00,
2013-07-07 03:29:00,65.0,61.4,29.93,SSW,198,0.0,0.0,88,0.00,,,0.00,0,Wunderground v.1.15,2013-07-07 07:29:00,
2013-07-07 03:30:00,65.0,61.4,29.93,SSW,198,0.0,0.0,88,0.00,,,0.00,0,Wunderground v.1.15,2013-07-07 07:30:00,
2013-07-07 03:32:00,64.9,61.3,29.93,SSW,198,0.0,0.0,88,0.00,,,0.00,0,Wunderground v.1.15,2013-07-07 07:32:00,
2013-07-07 03:34:00,64.9,61.3,29.93,SSW,198,0.0,0.0,88,0.00,,,0.00,0,Wunderground v.1.15,2013-07-07 07:34:00,
2013-07-07 03:35:00,64.9,61.3,29.93,SSW,198,0.0,0.0,88,0.00,,,0.00,0,Wunderground v.1.15,2013-07-07 07:35:00,
2013-07-07 03:37:00,64.9,61.3,29.93,SSW,198,0.0,0.0,88,0.00,,,0.00,0,Wunderground v.1.15,2013-07-07 07:37:00,
2013-07-07 03:38:00,64.8,61.2,29.92,SSW,198,0.0,0.0,88,0.00,,,0.00,0,Wunderground v.1.15,2013-07-07 07:38:00,
2013-07-07 03:40:00,64.8,61.2,29.93,SSW,198,0.0,0.0,88,0.00,,,0.00,0,Wunderground v.1.15,2013-07-07 07:40:00,
2013-07-07 03:42:00,64.8,61.2,29.93,SSW,198,0.0,0.0,88,0.00,,,0.00,0,Wunderground v.1.15,2013-07-07 07:42:00,
2013-07-07 03:43:00,64.8,61.2,29.93,SSW,198,0.0,0.0,88,0.00,,,0.00,0,Wunderground v.1.15,2013-07-07 07:43:00,
2013-07-07 03:46:00,64.8,61.2,29.93,SSW,198,0.0,0.0,88,0.00,,,0.00,0,Wunderground v.1.15,2013-07-07 07:46:00,
2013-07-07 03:47:00,64.7,61.1,29.93,SSW,198,0.0,0.0,88,0.00,,,0.00,0,Wunderground v.1.15,2013-07-07 07:47:00,
2013-07-07 03:49:00,64.8,61.5,29.93,SSW,198,0.0,0.0,89,0.00,,,0.00,0,Wunderground v.1.15,2013-07-07 07:49:00,
2013-07-07 03:50:00,64.7,61.4,29.93,SSW,198,0.0,0.0,89,0.00,,,0.00,0,Wunderground v.1.15,2013-07-07 07:50:00,
2013-07-07 03:51:00,64.7,61.4,29.93,SSW,198,0.0,0.0,89,0.00,,,0.00,0,Wunderground v.1.15,2013-07-07 07:51:00,
2013-07-07 03:54:00,64.7,61.4,29.93,SSW,198,0.0,0.0,89,0.00,,,0.00,0,Wunderground v.1.15,2013-07-07 07:54:00,
2013-07-07 03:55:00,64.7,61.4,29.93,SSW,198,0.0,0.0,89,0.00,,,0.00,0,Wunderground v.1.15,2013-07-07 07:55:00,
2013-07-07 03:57:00,64.7,61.4,29.93,SSW,198,0.0,0.0,89,0.00,,,0.00,0,Wunderground v.1.15,2013-07-07 07:57:00,
2013-07-07 03:58:00,64.7,61.4,29.93,SSW,198,0.0,0.0,89,0.00,,,0.00,0,Wunderground v.1.15,2013-07-07 07:58:00,
2013-07-07 03:59:00,64.7,61.4,29.93,SSW,198,0.0,0.0,89,0.00,,,0.00,0,Wunderground v.1.15,2013-07-07 07:59:00,
2013-07-07 04:01:00,64.7,61.4,29.93,SSW,198,0.0,0.0,89,0.00,,,0.00,0,Wunderground v.1.15,2013-07-07 08:01:00,
2013-07-07 04:03:00,64.7,61.4,29.93,SSW,198,0.0,0.0,89,0.00,,,0.00,0,Wunderground v.1.15,2013-07-07 08:03:00,
2013-07-07 04:07:00,64.6,61.6,29.93,SSW,198,0.0,0.0,90,0.00,,,0.00,0,Wunderground v.1.15,2013-07-07 08:07:00,
2013-07-07 04:09:00,64.6,61.6,29.93,SSW,198,0.0,0.0,90,0.00,,,0.00,0,Wunderground v.1.15,2013-07-07 08:09:00,
2013-07-07 04:13:00,64.6,61.6,29.92,SSW,198,0.0,0.0,90,0.00,,,0.00,0,Wunderground v.1.15,2013-07-07 08:13:00,
2013-07-07 04:14:00,64.5,61.5,29.92,SSW,198,0.0,0.0,90,0.00,,,0.00,0,Wunderground v.1.15,2013-07-07 08:14:00,
2013-07-07 04:15:00,64.5,61.5,29.92,SSW,198,0.0,0.0,90,0.00,,,0.00,0,Wunderground v.1.15,2013-07-07 08:15:00,
2013-07-07 04:16:00,64.5,61.5,29.92,SSW,198,0.0,0.0,90,0.00,,,0.00,0,Wunderground v.1.15,2013-07-07 08:16:00,
2013-07-07 04:17:00,64.5,61.5,29.92,SSW,198,0.0,0.0,90,0.00,,,0.00,0,Wunderground v.1.15,2013-07-07 08:17:00,
2013-07-07 04:19:00,64.5,61.5,29.92,SSW,198,0.0,0.0,90,0.00,,,0.00,0,Wunderground v.1.15,2013-07-07 08:19:00,
2013-07-07 04:21:00,64.5,61.5,29.92,SSW,198,0.0,0.0,90,0.00,,,0.00,0,Wunderground v.1.15,2013-07-07 08:21:00,
2013-07-07 04:24:00,64.4,61.4,29.92,SSW,198,0.0,0.0,90,0.00,,,0.00,0,Wunderground v.1.15,2013-07-07 08:24:00,
2013-07-07 04:25:00,64.4,61.4,29.92,SSW,198,0.0,0.0,90,0.00,,,0.00,0,Wunderground v.1.15,2013-07-07 08:25:00,
2013-07-07 04:28:00,64.4,61.4,29.92,SSW,198,0.0,0.0,90,0.00,,,0.00,0,Wunderground v.1.15,2013-07-07 08:28:00,
2013-07-07 04:29:00,64.4,61.4,29.92,SSW,198,0.0,0.0,90,0.00,,,0.00,0,Wunderground v.1.15,2013-07-07 08:29:00,
2013-07-07 04:32:00,64.3,61.3,29.92,SSW,198,0.0,0.0,90,0.00,,,0.00,0,Wunderground v.1.15,2013-07-07 08:32:00,
2013-07-07 04:33:00,64.3,61.3,29.92,SSW,198,0.0,0.0,90,0.00,,,0.00,0,Wunderground v.1.15,2013-07-07 08:33:00,
2013-07-07 04:35:00,64.3,61.3,29.92,SSW,198,0.0,0.0,90,0.00,,,0.00,0,Wunderground v.1.15,2013-07-07 08:35:00,
2013-07-07 04:38:00,64.3,61.3,29.92,SSW,198,0.0,0.0,90,0.00,,,0.00,0,Wunderground v.1.15,2013-07-07 08:38:00,
2013-07-07 04:39:00,64.3,61.3,29.92,SSW,198,0.0,0.0,90,0.00,,,0.00,0,Wunderground v.1.15,2013-07-07 08:39:00,
2013-07-07 04:41:00,64.3,61.3,29.91,SSW,198,0.0,0.0,90,0.00,,,0.00,0,Wunderground v.1.15,2013-07-07 08:41:00,
2013-07-07 04:43:00,64.3,61.3,29.92,SSW,198,0.0,0.0,90,0.00,,,0.00,0,Wunderground v.1.15,2013-07-07 08:43:00,
2013-07-07 04:44:00,64.3,61.3,29.92,SSW,198,0.0,0.0,90,0.00,,,0.00,0,Wunderground v.1.15,2013-07-07 08:44:00,
2013-07-07 04:47:00,64.3,61.3,29.91,SSW,198,0.0,0.0,90,0.00,,,0.00,0,Wunderground v.1.15,2013-07-07 08:47:00,
2013-07-07 04:48:00,64.3,61.3,29.91,SSW,198,0.0,0.0,90,0.00,,,0.00,0,Wunderground v.1.15,2013-07-07 08:48:00,
2013-07-07 04:50:00,64.3,61.3,29.91,SSW,198,0.0,0.0,90,0.00,,,0.00,0,Wunderground v.1.15,2013-07-07 08:50:00,
2013-07-07 04:51:00,64.3,61.3,29.91,SSW,198,0.0,0.0,90,0.00,,,0.00,0,Wunderground v.1.15,2013-07-07 08:51:00,
2013-07-07 04:53:00,64.3,61.6,29.91,SSW,198,0.0,0.0,91,0.00,,,0.00,0,Wunderground v.1.15,2013-07-07 08:53:00,
2013-07-07 04:56:00,64.3,61.6,29.91,SSW,198,0.0,0.0,91,0.00,,,0.00,0,Wunderground v.1.15,2013-07-07 08:56:00,
2013-07-07 05:00:00,64.3,61.6,29.91,SSW,198,0.0,0.0,91,0.00,,,0.00,0,Wunderground v.1.15,2013-07-07 09:00:00,
2013-07-07 05:02:00,64.3,61.6,29.92,SSW,198,0.0,0.0,91,0.00,,,0.00,0,Wunderground v.1.15,2013-07-07 09:02:00,
2013-07-07 05:04:00,64.3,61.6,29.92,SSW,198,0.0,0.0,91,0.00,,,0.00,0,Wunderground v.1.15,2013-07-07 09:04:00,
2013-07-07 05:06:00,64.3,61.6,29.92,SSW,198,0.0,0.0,91,0.00,,,0.00,0,Wunderground v.1.15,2013-07-07 09:06:00,
2013-07-07 05:08:00,64.3,61.6,29.92,SSW,198,0.0,0.0,91,0.00,,,0.00,0,Wunderground v.1.15,2013-07-07 09:08:00,
2013-07-07 05:10:00,64.3,61.6,29.92,SSW,198,0.0,0.0,91,0.00,,,0.00,0,Wunderground v.1.15,2013-07-07 09:10:00,
2013-07-07 05:13:00,64.2,61.5,29.92,SSW,198,0.0,0.0,91,0.00,,,0.00,0,Wunderground v.1.15,2013-07-07 09:13:00,
2013-07-07 05:14:00,64.2,61.5,29.92,SSW,198,0.0,0.0,91,0.00,,,0.00,0,Wunderground v.1.15,2013-07-07 09:14:00,
2013-07-07 05:17:00,64.1,61.4,29.92,SSW,198,0.0,0.0,91,0.00,,,0.00,0,Wunderground v.1.15,2013-07-07 09:17:00,
2013-07-07 05:19:00,64.1,61.4,29.92,SSW,198,0.0,0.0,91,0.00,,,0.00,0,Wunderground v.1.15,2013-07-07 09:19:00,
2013-07-07 05:20:00,64.0,61.3,29.92,SSW,198,0.0,0.0,91,0.00,,,0.00,0,Wunderground v.1.15,2013-07-07 09:20:00,
2013-07-07 05:25:00,64.0,61.3,29.92,SSW,198,0.0,0.0,91,0.00,,,0.00,0,Wunderground v.1.15,2013-07-07 09:25:00,
2013-07-07 05:26:00,64.0,61.3,29.92,SSW,198,0.0,0.0,91,0.00,,,0.00,0,Wunderground v.1.15,2013-07-07 09:26:00,
2013-07-07 05:28:00,64.0,61.3,29.92,SSW,198,0.0,0.0,91,0.00,,,0.00,0,Wunderground v.1.15,2013-07-07 09:28:00,
2013-07-07 05:31:00,63.9,61.2,29.92,SSW,198,0.0,0.0,91,0.00,,,0.00,0,Wunderground v.1.15,2013-07-07 09:31:00,
2013-07-07 05:32:00,64.0,61.3,29.92,SSW,198,0.0,0.0,91,0.00,,,0.00,0,Wunderground v.1.15,2013-07-07 09:32:00,
2013-07-07 05:33:00,63.9,61.2,29.92,SSW,198,0.0,0.0,91,0.00,,,0.00,0,Wunderground v.1.15,2013-07-07 09:33:00,
2013-07-07 05:36:00,63.9,61.2,29.92,SSW,198,0.0,0.0,91,0.00,,,0.00,0,Wunderground v.1.15,2013-07-07 09:36:00,
2013-07-07 05:37:00,63.9,61.2,29.92,SSW,198,0.0,0.0,91,0.00,,,0.00,0,Wunderground v.1.15,2013-07-07 09:37:00,
2013-07-07 05:38:00,63.9,61.5,29.92,SSW,198,0.0,0.0,92,0.00,,,0.00,0,Wunderground v.1.15,2013-07-07 09:38:00,
2013-07-07 05:39:00,63.8,61.4,29.92,SSW,198,0.0,0.0,92,0.00,,,0.00,0,Wunderground v.1.15,2013-07-07 09:39:00,
2013-07-07 05:41:00,63.8,61.4,29.92,SSW,198,0.0,0.0,92,0.00,,,0.00,0,Wunderground v.1.15,2013-07-07 09:41:00,
2013-07-07 05:43:00,63.8,61.4,29.92,SSW,198,0.0,0.0,92,0.00,,,0.00,0,Wunderground v.1.15,2013-07-07 09:43:00,
2013-07-07 05:46:00,63.8,61.4,29.92,SSW,198,0.0,0.0,92,0.00,,,0.00,0,Wunderground v.1.15,2013-07-07 09:46:00,
2013-07-07 05:47:00,63.8,61.4,29.92,SSW,198,0.0,0.0,92,0.00,,,0.00,0,Wunderground v.1.15,2013-07-07 09:47:00,
2013-07-07 05:49:00,63.7,61.3,29.92,SSW,198,0.0,0.0,92,0.00,,,0.00,0,Wunderground v.1.15,2013-07-07 09:49:00,
2013-07-07 05:50:00,63.7,61.3,29.92,SSW,198,0.0,0.0,92,0.00,,,0.00,0,Wunderground v.1.15,2013-07-07 09:50:00,
2013-07-07 05:52:00,63.7,61.3,29.92,SSW,198,0.0,0.0,92,0.00,,,0.00,0,Wunderground v.1.15,2013-07-07 09:52:00,
2013-07-07 05:53:00,63.7,61.3,29.92,SSW,198,0.0,0.0,92,0.00,,,0.00,0,Wunderground v.1.15,2013-07-07 09:53:00,
2013-07-07 05:55:00,63.7,61.3,29.92,SSW,198,0.0,0.0,92,0.00,,,0.00,0,Wunderground v.1.15,2013-07-07 09:55:00,
2013-07-07 05:56:00,63.7,61.3,29.92,SSW,198,0.0,0.0,92,0.00,,,0.00,0,Wunderground v.1.15,2013-07-07 09:56:00,
2013-07-07 05:59:00,63.7,61.3,29.92,SSW,198,0.0,0.0,92,0.00,,,0.00,0,Wunderground v.1.15,2013-07-07 09:59:00,
2013-07-07 06:02:00,63.7,61.3,29.92,SSW,198,0.0,0.0,92,0.00,,,0.00,0,Wunderground v.1.15,2013-07-07 10:02:00,
2013-07-07 06:03:00,63.7,61.3,29.92,SSW,198,0.0,0.0,92,0.00,,,0.00,0,Wunderground v.1.15,2013-07-07 10:03:00,
2013-07-07 06:04:00,63.7,61.3,29.92,SSW,198,0.0,0.0,92,0.00,,,0.00,0,Wunderground v.1.15,2013-07-07 10:04:00,
2013-07-07 06:08:00,63.6,61.2,29.92,SSW,198,0.0,0.0,92,0.00,,,0.00,5,Wunderground v.1.15,2013-07-07 10:08:00,
2013-07-07 06:09:00,63.6,61.2,29.92,SSW,198,0.0,0.0,92,0.00,,,0.00,7,Wunderground v.1.15,2013-07-07 10:09:00,
2013-07-07 06:10:00,63.6,61.2,29.92,SSW,198,0.0,0.0,92,0.00,,,0.00,7,Wunderground v.1.15,2013-07-07 10:10:00,
2013-07-07 06:11:00,63.6,61.2,29.92,SSW,198,0.0,0.0,92,0.00,,,0.00,7,Wunderground v.1.15,2013-07-07 10:11:00,
2013-07-07 06:12:00,63.6,61.2,29.92,SSW,198,0.0,0.0,92,0.00,,,0.00,7,Wunderground v.1.15,2013-07-07 10:12:00,
2013-07-07 06:16:00,63.6,61.2,29.92,SSW,198,0.0,0.0,92,0.00,,,0.00,9,Wunderground v.1.15,2013-07-07 10:16:00,
2013-07-07 06:17:00,63.6,61.2,29.92,SSW,198,0.0,0.0,92,0.00,,,0.00,9,Wunderground v.1.15,2013-07-07 10:17:00,
2013-07-07 06:20:00,63.6,61.2,29.92,SSW,198,0.0,0.0,92,0.00,,,0.00,9,Wunderground v.1.15,2013-07-07 10:20:00,
2013-07-07 06:22:00,63.6,61.5,29.92,SSW,198,0.0,0.0,93,0.00,,,0.00,9,Wunderground v.1.15,2013-07-07 10:22:00,
2013-07-07 06:23:00,63.6,61.5,29.92,SSW,198,0.0,0.0,93,0.00,,,0.00,9,Wunderground v.1.15,2013-07-07 10:23:00,
2013-07-07 06:24:00,63.6,61.5,29.92,SSW,198,0.0,0.0,93,0.00,,,0.00,9,Wunderground v.1.15,2013-07-07 10:24:00,
2013-07-07 06:28:00,63.7,61.6,29.92,SSW,198,0.0,0.0,93,0.00,,,0.00,9,Wunderground v.1.15,2013-07-07 10:28:00,
2013-07-07 06:29:00,63.7,61.6,29.92,SSW,198,0.0,0.0,93,0.00,,,0.00,9,Wunderground v.1.15,2013-07-07 10:29:00,
2013-07-07 06:31:00,63.7,61.6,29.93,SSW,198,0.0,0.0,93,0.00,,,0.00,9,Wunderground v.1.15,2013-07-07 10:31:00,
2013-07-07 06:32:00,63.7,61.6,29.93,SSW,198,0.0,0.0,93,0.00,,,0.00,9,Wunderground v.1.15,2013-07-07 10:32:00,
2013-07-07 06:35:00,63.8,61.7,29.92,SSW,198,0.0,0.0,93,0.00,,,0.00,9,Wunderground v.1.15,2013-07-07 10:35:00,
2013-07-07 06:36:00,63.8,61.7,29.92,SSW,198,0.0,0.0,93,0.00,,,0.00,9,Wunderground v.1.15,2013-07-07 10:36:00,
2013-07-07 06:38:00,63.8,61.7,29.92,SSW,198,0.0,0.0,93,0.00,,,0.00,9,Wunderground v.1.15,2013-07-07 10:38:00,
2013-07-07 06:41:00,63.8,61.7,29.92,SSW,198,0.0,0.0,93,0.00,,,0.00,11,Wunderground v.1.15,2013-07-07 10:41:00,
2013-07-07 06:42:00,63.9,61.8,29.92,SSW,198,0.0,0.0,93,0.00,,,0.00,11,Wunderground v.1.15,2013-07-07 10:42:00,
2013-07-07 06:45:00,63.9,61.8,29.92,SSW,198,0.0,0.0,93,0.00,,,0.00,11,Wunderground v.1.15,2013-07-07 10:45:00,
2013-07-07 06:48:00,64.0,61.9,29.92,SSW,198,0.0,0.0,93,0.00,,,0.00,11,Wunderground v.1.15,2013-07-07 10:48:00,
2013-07-07 06:49:00,64.0,61.9,29.92,SSW,198,0.0,0.0,93,0.00,,,0.00,11,Wunderground v.1.15,2013-07-07 10:49:00,
2013-07-07 06:51:00,64.0,61.9,29.92,SSW,198,0.0,0.0,93,0.00,,,0.00,11,Wunderground v.1.15,2013-07-07 10:51:00,
2013-07-07 06:52:00,64.0,61.9,29.92,SSW,198,0.0,0.0,93,0.00,,,0.00,11,Wunderground v.1.15,2013-07-07 10:52:00,
2013-07-07 06:54:00,64.1,62.0,29.92,SSW,198,0.0,0.0,93,0.00,,,0.00,12,Wunderground v.1.15,2013-07-07 10:54:00,
2013-07-07 06:55:00,64.1,62.0,29.92,SSW,198,0.0,0.0,93,0.00,,,0.00,12,Wunderground v.1.15,2013-07-07 10:55:00,
2013-07-07 06:56:00,64.1,62.0,29.92,SSW,198,0.0,0.0,93,0.00,,,0.00,12,Wunderground v.1.15,2013-07-07 10:56:00,
2013-07-07 06:57:00,64.1,62.0,29.92,SSW,198,0.0,0.0,93,0.00,,,0.00,12,Wunderground v.1.15,2013-07-07 10:57:00,
2013-07-07 07:03:00,64.1,62.0,29.92,SSW,198,0.0,0.0,93,0.00,,,0.00,16,Wunderground v.1.15,2013-07-07 11:03:00,
2013-07-07 07:05:00,64.1,62.0,29.92,SSW,198,0.0,0.0,93,0.00,,,0.00,16,Wunderground v.1.15,2013-07-07 11:05:00,
2013-07-07 07:09:00,64.1,62.0,29.92,SSW,198,0.0,0.0,93,0.00,,,0.00,21,Wunderground v.1.15,2013-07-07 11:09:00,
2013-07-07 07:10:00,64.2,62.1,29.92,SSW,198,0.0,0.0,93,0.00,,,0.00,25,Wunderground v.1.15,2013-07-07 11:10:00,
2013-07-07 07:11:00,64.1,62.0,29.92,SSW,198,0.0,0.0,93,0.00,,,0.00,25,Wunderground v.1.15,2013-07-07 11:11:00,
2013-07-07 07:13:00,64.2,62.1,29.92,SSW,198,0.0,0.0,93,0.00,,,0.00,23,Wunderground v.1.15,2013-07-07 11:13:00,
2013-07-07 07:16:00,64.3,62.2,29.92,SSW,198,0.0,0.0,93,0.00,,,0.00,21,Wunderground v.1.15,2013-07-07 11:16:00,
2013-07-07 07:17:00,64.3,62.2,29.92,SSW,198,0.0,0.0,93,0.00,,,0.00,21,Wunderground v.1.15,2013-07-07 11:17:00,
2013-07-07 07:18:00,64.3,62.2,29.92,SSW,198,0.0,0.0,93,0.00,,,0.00,19,Wunderground v.1.15,2013-07-07 11:18:00,
2013-07-07 07:19:00,64.3,62.2,29.92,SSW,198,0.0,0.0,93,0.00,,,0.00,19,Wunderground v.1.15,2013-07-07 11:19:00,
2013-07-07 07:22:00,64.4,62.3,29.92,SSW,198,0.0,0.0,93,0.00,,,0.00,18,Wunderground v.1.15,2013-07-07 11:22:00,
2013-07-07 07:25:00,64.4,62.3,29.92,SSW,198,0.0,0.0,93,0.00,,,0.00,18,Wunderground v.1.15,2013-07-07 11:25:00,
2013-07-07 07:26:00,64.5,62.4,29.92,SSW,198,0.0,0.0,93,0.00,,,0.00,19,Wunderground v.1.15,2013-07-07 11:26:00,
2013-07-07 07:30:00,64.6,62.5,29.92,SSW,198,0.0,0.0,93,0.00,,,0.00,18,Wunderground v.1.15,2013-07-07 11:30:00,
2013-07-07 11:48:00,76.0,69.0,29.90,SSW,198,0.0,0.0,79,0.00,,,0.00,204,Wunderground v.1.15,2013-07-07 15:48:00,
2013-07-07 11:51:00,76.1,69.1,29.90,SSW,198,0.0,0.0,79,0.00,,,0.00,255,Wunderground v.1.15,2013-07-07 15:51:00,
2013-07-07 11:52:00,76.1,69.1,29.90,SSW,198,0.0,0.0,79,0.00,,,0.00,250,Wunderground v.1.15,2013-07-07 15:52:00,
2013-07-07 11:53:00,76.2,69.2,29.90,SSW,198,0.0,0.0,79,0.00,,,0.00,253,Wunderground v.1.15,2013-07-07 15:53:00,
2013-07-07 11:56:00,76.2,69.2,29.90,SSW,198,0.0,0.0,79,0.00,,,0.00,165,Wunderground v.1.15,2013-07-07 15:56:00,
2013-07-07 11:58:00,76.3,68.9,29.90,SSW,198,0.0,0.0,78,0.00,,,0.00,158,Wunderground v.1.15,2013-07-07 15:58:00,
2013-07-07 12:00:00,76.3,69.3,29.90,SSW,198,0.0,0.0,79,0.00,,,0.00,158,Wunderground v.1.15,2013-07-07 16:00:00,
2013-07-07 12:02:00,76.4,69.0,29.90,SSW,198,0.0,0.0,78,0.00,,,0.00,176,Wunderground v.1.15,2013-07-07 16:02:00,
2013-07-07 12:04:00,76.4,69.0,29.90,SSW,198,0.0,0.0,78,0.00,,,0.00,181,Wunderground v.1.15,2013-07-07 16:04:00,
2013-07-07 12:05:00,76.5,69.1,29.90,SSW,198,0.0,0.0,78,0.00,,,0.00,178,Wunderground v.1.15,2013-07-07 16:05:00,
2013-07-07 12:06:00,76.5,69.1,29.90,SSW,198,0.0,0.0,78,0.00,,,0.00,171,Wunderground v.1.15,2013-07-07 16:06:00,
2013-07-07 12:11:00,76.4,69.0,29.90,SSW,198,0.0,0.0,78,0.00,,,0.00,149,Wunderground v.1.15,2013-07-07 16:11:00,
2013-07-07 12:12:00,76.4,69.0,29.90,SSW,198,0.0,0.0,78,0.00,,,0.00,156,Wunderground v.1.15,2013-07-07 16:12:00,
2013-07-07 12:15:00,76.5,68.7,29.90,SSW,198,0.0,0.0,77,0.00,,,0.00,169,Wunderground v.1.15,2013-07-07 16:15:00,
2013-07-07 12:16:00,76.5,69.1,29.90,SSW,198,0.0,0.0,78,0.00,,,0.00,165,Wunderground v.1.15,2013-07-07 16:16:00,
2013-07-07 12:20:00,76.5,69.1,29.90,SSW,198,0.0,0.0,78,0.00,,,0.00,142,Wunderground v.1.15,2013-07-07 16:20:00,
2013-07-07 12:21:00,76.5,69.1,29.90,SSW,198,0.0,0.0,78,0.00,,,0.00,141,Wunderground v.1.15,2013-07-07 16:21:00,
2013-07-07 12:24:00,76.6,69.2,29.90,SSW,198,0.0,0.0,78,0.00,,,0.00,137,Wunderground v.1.15,2013-07-07 16:24:00,
2013-07-07 12:25:00,76.6,69.2,29.90,SSW,198,0.0,0.0,78,0.00,,,0.00,141,Wunderground v.1.15,2013-07-07 16:25:00,
2013-07-07 12:28:00,76.7,69.3,29.90,SSW,198,0.0,0.0,78,0.00,,,0.00,149,Wunderground v.1.15,2013-07-07 16:28:00,
2013-07-07 12:30:00,76.7,68.9,29.90,SSW,198,0.0,0.0,77,0.00,,,0.00,141,Wunderground v.1.15,2013-07-07 16:30:00,
2013-07-07 12:31:00,76.8,69.0,29.90,SSW,198,0.0,0.0,77,0.00,,,0.00,130,Wunderground v.1.15,2013-07-07 16:31:00,
2013-07-07 12:35:00,76.8,69.0,29.90,SSW,198,0.0,0.0,77,0.00,,,0.00,111,Wunderground v.1.15,2013-07-07 16:35:00,
2013-07-07 12:37:00,76.8,69.0,29.90,SSW,198,0.0,0.0,77,0.00,,,0.00,120,Wunderground v.1.15,2013-07-07 16:37:00,
2013-07-07 12:39:00,76.9,69.5,29.90,SSW,198,0.0,0.0,78,0.00,,,0.00,107,Wunderground v.1.15,2013-07-07 16:39:00,
2013-07-07 12:41:00,76.9,69.1,29.90,SSW,198,0.0,0.0,77,0.00,,,0.00,100,Wunderground v.1.15,2013-07-07 16:41:00,
2013-07-07 12:43:00,76.9,69.1,29.90,SSW,198,0.0,0.0,77,0.00,,,0.00,105,Wunderground v.1.15,2013-07-07 16:43:00,
2013-07-07 12:45:00,76.9,69.1,29.90,SSW,198,0.0,0.0,77,0.00,,,0.00,113,Wunderground v.1.15,2013-07-07 16:45:00,
2013-07-07 12:46:00,76.9,69.1,29.90,SSW,198,0.0,0.0,77,0.00,,,0.00,118,Wunderground v.1.15,2013-07-07 16:46:00,
2013-07-07 12:49:00,76.9,69.1,29.90,SSW,198,0.0,0.0,77,0.00,,,0.00,148,Wunderground v.1.15,2013-07-07 16:49:00,
2013-07-07 12:50:00,76.9,69.1,29.90,SSW,198,0.0,0.0,77,0.00,,,0.00,155,Wunderground v.1.15,2013-07-07 16:50:00,
2013-07-07 12:51:00,76.9,69.1,29.90,SSW,198,0.0,0.0,77,0.00,,,0.00,155,Wunderground v.1.15,2013-07-07 16:51:00,
2013-07-07 12:55:00,76.9,69.5,29.90,SSW,198,0.0,0.0,78,0.00,,,0.00,134,Wunderground v.1.15,2013-07-07 16:55:00,
2013-07-07 12:56:00,76.9,69.5,29.90,SSW,198,0.0,0.0,78,0.00,,,0.00,127,Wunderground v.1.15,2013-07-07 16:56:00,
2013-07-07 12:57:00,76.9,69.5,29.90,SSW,198,0.0,0.0,78,0.00,,,0.00,121,Wunderground v.1.15,2013-07-07 16:57:00,
2013-07-07 12:58:00,76.9,69.5,29.90,SSW,198,0.0,0.0,78,0.00,,,0.00,116,Wunderground v.1.15,2013-07-07 16:58:00,
2013-07-07 13:00:00,77.0,69.2,29.90,SSW,198,0.0,0.0,77,0.00,,,0.00,107,Wunderground v.1.15,2013-07-07 17:00:00,
2013-07-07 13:01:00,77.0,69.2,29.90,SSW,198,0.0,0.0,77,0.00,,,0.00,100,Wunderground v.1.15,2013-07-07 17:01:00,
2013-07-07 13:03:00,77.0,69.2,29.90,SSW,198,0.0,0.0,77,0.00,,,0.00,90,Wunderground v.1.15,2013-07-07 17:03:00,
2013-07-07 13:04:00,77.1,69.7,29.90,SSW,198,0.0,0.0,78,0.00,,,0.00,86,Wunderground v.1.15,2013-07-07 17:04:00,
2013-07-07 13:05:00,77.1,69.7,29.90,SSW,198,0.0,0.0,78,0.00,,,0.00,102,Wunderground v.1.15,2013-07-07 17:05:00,
2013-07-07 13:07:00,77.0,69.2,29.89,SSW,198,0.0,0.0,77,0.00,,,0.00,151,Wunderground v.1.15,2013-07-07 17:07:00,
2013-07-07 13:10:00,77.0,69.6,29.89,SSW,198,0.0,0.0,78,0.00,,,0.00,234,Wunderground v.1.15,2013-07-07 17:10:00,
2013-07-07 13:11:00,77.0,69.6,29.89,SSW,198,0.0,0.0,78,0.00,,,0.00,371,Wunderground v.1.15,2013-07-07 17:11:00,
2013-07-07 13:12:00,77.0,69.2,29.89,SSW,198,0.0,0.0,77,0.00,,,0.00,346,Wunderground v.1.15,2013-07-07 17:12:00,
2013-07-07 13:13:00,77.1,69.3,29.89,SSW,198,0.0,0.0,77,0.00,,,0.00,346,Wunderground v.1.15,2013-07-07 17:13:00,
2013-07-07 13:14:00,77.1,69.3,29.89,SSW,198,0.0,0.0,77,0.00,,,0.00,346,Wunderground v.1.15,2013-07-07 17:14:00,
2013-07-07 13:18:00,77.5,69.7,29.89,SSW,198,0.0,0.0,77,0.00,,,0.00,183,Wunderground v.1.15,2013-07-07 17:18:00,
2013-07-07 13:20:00,77.6,69.8,29.89,SSW,198,0.0,0.0,77,0.00,,,0.00,174,Wunderground v.1.15,2013-07-07 17:20:00,
2013-07-07 13:21:00,77.7,69.9,29.89,SSW,198,0.0,0.0,77,0.00,,,0.00,163,Wunderground v.1.15,2013-07-07 17:21:00,
2013-07-07 13:25:00,78.0,69.8,29.89,SSW,198,0.0,0.0,76,0.00,,,0.00,176,Wunderground v.1.15,2013-07-07 17:25:00,
2013-07-07 13:26:00,78.1,69.9,29.89,SSW,198,0.0,0.0,76,0.00,,,0.00,192,Wunderground v.1.15,2013-07-07 17:26:00,
2013-07-07 13:28:00,78.3,69.7,29.89,SSW,198,0.0,0.0,75,0.00,,,0.00,207,Wunderground v.1.15,2013-07-07 17:28:00,
2013-07-07 13:30:00,78.4,69.4,29.89,SSW,198,0.0,0.0,74,0.00,,,0.00,220,Wunderground v.1.15,2013-07-07 17:30:00,
2013-07-07 13:32:00,78.5,69.5,29.89,SSW,198,0.0,0.0,74,0.00,,,0.00,178,Wunderground v.1.15,2013-07-07 17:32:00,
2013-07-07 13:35:00,78.7,69.7,29.89,SSW,198,0.0,0.0,74,0.00,,,0.00,132,Wunderground v.1.15,2013-07-07 17:35:00,
2013-07-07 13:36:00,78.8,69.8,29.89,SSW,198,0.0,0.0,74,0.00,,,0.00,130,Wunderground v.1.15,2013-07-07 17:36:00,
2013-07-07 13:37:00,78.8,70.2,29.89,SSW,198,0.0,0.0,75,0.00,,,0.00,139,Wunderground v.1.15,2013-07-07 17:37:00,
2013-07-07 13:38:00,78.9,70.3,29.89,SSW,198,0.0,0.0,75,0.00,,,0.00,153,Wunderground v.1.15,2013-07-07 17:38:00,
2013-07-07 13:40:00,79.0,70.4,29.89,SSW,198,0.0,0.0,75,0.00,,,0.00,186,Wunderground v.1.15,2013-07-07 17:40:00,
2013-07-07 13:42:00,79.0,70.4,29.89,SSW,198,0.0,0.0,75,0.00,,,0.00,199,Wunderground v.1.15,2013-07-07 17:42:00,
2013-07-07 13:43:00,79.0,70.4,29.89,SSW,198,0.0,0.0,75,0.00,,,0.00,192,Wunderground v.1.15,2013-07-07 17:43:00,
2013-07-07 13:45:00,79.0,70.4,29.89,SSW,198,0.0,0.0,75,0.00,,,0.00,195,Wunderground v.1.15,2013-07-07 17:45:00,
2013-07-07 13:48:00,79.1,70.5,29.89,SSW,198,0.0,0.0,75,0.00,,,0.00,292,Wunderground v.1.15,2013-07-07 17:48:00,
2013-07-07 13:49:00,79.1,70.5,29.89,SSW,198,0.0,0.0,75,0.00,,,0.00,255,Wunderground v.1.15,2013-07-07 17:49:00,
2013-07-07 13:52:00,79.2,70.2,29.89,SSW,193,0.0,0.0,74,0.00,,,0.00,178,Wunderground v.1.15,2013-07-07 17:52:00,
2013-07-07 13:55:00,79.2,69.8,29.89,NNW,330,0.0,0.0,73,0.00,,,0.00,118,Wunderground v.1.15,2013-07-07 17:55:00,
2013-07-07 13:58:00,79.1,70.1,29.89,South,176,0.0,0.0,74,0.00,,,0.00,76,Wunderground v.1.15,2013-07-07 17:58:00,
2013-07-07 13:59:00,79.1,70.1,29.89,South,176,0.0,0.0,74,0.00,,,0.00,72,Wunderground v.1.15,2013-07-07 17:59:00,
2013-07-07 14:01:00,79.0,70.0,29.89,South,176,0.0,0.0,74,0.00,,,0.00,63,Wunderground v.1.15,2013-07-07 18:01:00,
2013-07-07 14:04:00,78.9,69.5,29.89,South,178,0.0,0.0,73,0.00,,,0.00,58,Wunderground v.1.15,2013-07-07 18:04:00,
2013-07-07 14:05:00,78.8,69.4,29.89,South,178,0.0,0.0,73,0.00,,,0.00,62,Wunderground v.1.15,2013-07-07 18:05:00,
2013-07-07 14:09:00,78.7,69.3,29.89,WSW,240,0.0,1.0,73,0.00,,,0.00,76,Wunderground v.1.15,2013-07-07 18:09:00,
2013-07-07 14:10:00,78.6,69.6,29.89,South,182,0.0,1.0,74,0.00,,,0.00,79,Wunderground v.1.15,2013-07-07 18:10:00,
2013-07-07 14:11:00,78.6,69.2,29.89,South,184,0.0,2.0,73,0.00,,,0.00,83,Wunderground v.1.15,2013-07-07 18:11:00,
2013-07-07 14:13:00,78.5,69.1,29.89,South,185,0.0,0.0,73,0.00,,,0.00,86,Wunderground v.1.15,2013-07-07 18:13:00,
2013-07-07 14:15:00,78.4,69.4,29.89,South,186,1.0,2.0,74,0.00,,,0.00,83,Wunderground v.1.15,2013-07-07 18:15:00,
2013-07-07 14:17:00,78.4,69.4,29.89,South,184,1.0,2.0,74,0.00,,,0.00,83,Wunderground v.1.15,2013-07-07 18:17:00,
2013-07-07 14:19:00,78.4,69.8,29.90,South,185,1.0,2.0,75,0.00,,,0.00,97,Wunderground v.1.15,2013-07-07 18:19:00,
2013-07-07 14:20:00,78.3,70.1,29.89,South,185,1.0,2.0,76,0.00,,,0.00,105,Wunderground v.1.15,2013-07-07 18:20:00,
2013-07-07 14:21:00,78.3,70.1,29.89,South,185,1.0,2.0,76,0.00,,,0.00,125,Wunderground v.1.15,2013-07-07 18:21:00,
2013-07-07 14:22:00,78.2,70.4,29.89,South,185,1.0,1.0,77,0.00,,,0.00,134,Wunderground v.1.15,2013-07-07 18:22:00,
2013-07-07 14:26:00,78.1,69.9,29.90,South,185,0.0,1.0,76,0.00,,,0.00,146,Wunderground v.1.15,2013-07-07 18:26:00,
2013-07-07 14:27:00,78.0,70.2,29.90,South,182,0.0,1.0,77,0.00,,,0.00,146,Wunderground v.1.15,2013-07-07 18:27:00,
2013-07-07 14:28:00,78.0,70.2,29.90,South,179,0.0,1.0,77,0.00,,,0.00,162,Wunderground v.1.15,2013-07-07 18:28:00,
2013-07-07 14:32:00,77.8,69.6,29.89,West,270,0.0,0.0,76,0.00,,,0.00,160,Wunderground v.1.15,2013-07-07 18:32:00,
2013-07-07 14:33:00,77.7,69.5,29.89,West,270,0.0,0.0,76,0.00,,,0.00,139,Wunderground v.1.15,2013-07-07 18:33:00,
2013-07-07 14:34:00,77.7,69.5,29.89,West,270,0.0,0.0,76,0.00,,,0.00,132,Wunderground v.1.15,2013-07-07 18:34:00,
2013-07-07 14:37:00,77.6,69.0,29.89,NW,307,0.0,0.0,75,0.00,,,0.00,114,Wunderground v.1.15,2013-07-07 18:37:00,
2013-07-07 14:39:00,77.5,68.6,29.89,North,355,0.0,0.0,74,0.00,,,0.00,88,Wunderground v.1.15,2013-07-07 18:39:00,
2013-07-07 14:41:00,77.5,68.9,29.89,North,355,0.0,0.0,75,0.00,,,0.00,72,Wunderground v.1.15,2013-07-07 18:41:00,
2013-07-07 14:43:00,77.4,68.9,29.89,North,355,0.0,0.0,75,0.00,,,0.00,58,Wunderground v.1.15,2013-07-07 18:43:00,
2013-07-07 14:44:00,77.4,68.9,29.89,North,355,0.0,0.0,75,0.00,,,0.00,53,Wunderground v.1.15,2013-07-07 18:44:00,
2013-07-07 14:47:00,77.4,68.9,29.89,North,355,0.0,0.0,75,0.00,,,0.00,47,Wunderground v.1.15,2013-07-07 18:47:00,
2013-07-07 14:48:00,77.4,68.9,29.89,North,355,0.0,0.0,75,0.00,,,0.00,49,Wunderground v.1.15,2013-07-07 18:48:00,
2013-07-07 14:50:00,77.4,68.9,29.89,North,355,0.0,0.0,75,0.00,,,0.00,49,Wunderground v.1.15,2013-07-07 18:50:00,
2013-07-07 14:52:00,77.4,68.5,29.89,North,355,0.0,0.0,74,0.00,,,0.00,53,Wunderground v.1.15,2013-07-07 18:52:00,
2013-07-07 14:53:00,77.3,68.8,29.89,North,355,0.0,0.0,75,0.00,,,0.00,54,Wunderground v.1.15,2013-07-07 18:53:00,
2013-07-07 14:54:00,77.2,68.7,29.89,North,355,0.0,0.0,75,0.00,,,0.00,53,Wunderground v.1.15,2013-07-07 18:54:00,
2013-07-07 14:56:00,77.2,68.7,29.89,North,355,0.0,0.0,75,0.00,,,0.00,56,Wunderground v.1.15,2013-07-07 18:56:00,
2013-07-07 14:57:00,77.1,68.6,29.89,North,355,0.0,0.0,75,0.00,,,0.00,65,Wunderground v.1.15,2013-07-07 18:57:00,
2013-07-07 15:00:00,77.0,68.9,29.89,North,355,0.0,0.0,76,0.00,,,0.00,79,Wunderground v.1.15,2013-07-07 19:00:00,
2013-07-07 15:02:00,77.1,69.3,29.89,North,355,0.0,0.0,77,0.00,,,0.00,79,Wunderground v.1.15,2013-07-07 19:02:00,
2013-07-07 15:03:00,77.1,69.3,29.89,North,355,0.0,0.0,77,0.00,,,0.00,77,Wunderground v.1.15,2013-07-07 19:03:00,
2013-07-07 15:06:00,77.2,69.4,29.89,North,355,0.0,0.0,77,0.00,,,0.00,60,Wunderground v.1.15,2013-07-07 19:06:00,
2013-07-07 15:07:00,77.2,69.4,29.89,North,355,0.0,0.0,77,0.00,,,0.00,56,Wunderground v.1.15,2013-07-07 19:07:00,
2013-07-07 15:08:00,77.3,69.5,29.89,North,355,0.0,0.0,77,0.00,,,0.00,58,Wunderground v.1.15,2013-07-07 19:08:00,
2013-07-07 15:10:00,77.2,69.4,29.89,North,355,0.0,0.0,77,0.00,,,0.00,72,Wunderground v.1.15,2013-07-07 19:10:00,
2013-07-07 15:15:00,77.1,69.7,29.88,North,355,0.0,0.0,78,0.00,,,0.00,188,Wunderground v.1.15,2013-07-07 19:15:00,
2013-07-07 15:16:00,77.1,69.3,29.88,North,355,0.0,0.0,77,0.00,,,0.00,213,Wunderground v.1.15,2013-07-07 19:16:00,
2013-07-07 15:17:00,77.1,69.3,29.88,North,355,0.0,0.0,77,0.00,,,0.00,229,Wunderground v.1.15,2013-07-07 19:17:00,
2013-07-07 15:22:00,77.1,68.9,29.88,North,355,0.0,0.0,76,0.00,,,0.00,290,Wunderground v.1.15,2013-07-07 19:22:00,
2013-07-07 15:23:00,77.1,69.3,29.88,North,355,0.0,0.0,77,0.00,,,0.00,283,Wunderground v.1.15,2013-07-07 19:23:00,
2013-07-07 15:28:00,77.4,69.6,29.88,North,355,0.0,0.0,77,0.00,,,0.00,214,Wunderground v.1.15,2013-07-07 19:28:00,
2013-07-07 15:29:00,77.5,70.1,29.88,North,355,0.0,0.0,78,0.00,,,0.00,200,Wunderground v.1.15,2013-07-07 19:29:00,
2013-07-07 15:31:00,77.6,70.2,29.89,North,355,0.0,0.0,78,0.00,,,0.00,197,Wunderground v.1.15,2013-07-07 19:31:00,
2013-07-07 15:34:00,77.8,70.0,29.89,North,355,0.0,0.0,77,0.00,,,0.00,195,Wunderground v.1.15,2013-07-07 19:34:00,
2013-07-07 15:35:00,77.9,69.3,29.89,North,355,0.0,0.0,75,0.00,,,0.00,190,Wunderground v.1.15,2013-07-07 19:35:00,
2013-07-07 15:36:00,77.9,69.3,29.89,North,355,0.0,0.0,75,0.00,,,0.00,190,Wunderground v.1.15,2013-07-07 19:36:00,
2013-07-07 15:37:00,78.0,69.4,29.89,North,355,0.0,0.0,75,0.00,,,0.00,279,Wunderground v.1.15,2013-07-07 19:37:00,
2013-07-07 15:43:00,78.4,70.6,29.89,North,355,0.0,0.0,77,0.00,,,0.00,438,Wunderground v.1.15,2013-07-07 19:43:00,
2013-07-07 15:45:00,78.6,70.8,29.89,North,355,0.0,0.0,77,0.00,,,0.00,366,Wunderground v.1.15,2013-07-07 19:45:00,
2013-07-07 15:46:00,78.7,70.9,29.89,North,355,0.0,0.0,77,0.00,,,0.00,563,Wunderground v.1.15,2013-07-07 19:46:00,
2013-07-07 15:47:00,78.8,71.4,29.89,North,355,0.0,0.0,78,0.00,,,0.00,563,Wunderground v.1.15,2013-07-07 19:47:00,
2013-07-07 15:51:00,79.3,71.1,29.89,North,355,0.0,0.0,76,0.00,,,0.00,287,Wunderground v.1.15,2013-07-07 19:51:00,
2013-07-07 15:52:00,79.4,70.8,29.89,North,355,0.0,0.0,75,0.00,,,0.00,301,Wunderground v.1.15,2013-07-07 19:52:00,
2013-07-07 15:54:00,79.5,71.3,29.89,North,355,0.0,0.0,76,0.00,,,0.00,301,Wunderground v.1.15,2013-07-07 19:54:00,
2013-07-07 15:55:00,79.6,71.4,29.89,North,355,0.0,0.0,76,0.00,,,0.00,301,Wunderground v.1.15,2013-07-07 19:55:00,
2013-07-07 15:57:00,79.8,71.2,29.89,North,355,0.0,0.0,75,0.00,,,0.00,642,Wunderground v.1.15,2013-07-07 19:57:00,
2013-07-07 15:58:00,80.0,71.8,29.89,North,355,0.0,0.0,76,0.00,,,0.00,592,Wunderground v.1.15,2013-07-07 19:58:00,
2013-07-07 16:03:00,80.4,70.9,29.89,North,355,0.0,0.0,73,0.00,,,0.00,388,Wunderground v.1.15,2013-07-07 20:03:00,
2013-07-07 16:09:00,81.1,71.2,29.89,North,355,0.0,0.0,72,0.00,,,0.00,339,Wunderground v.1.15,2013-07-07 20:09:00,
2013-07-07 16:10:00,81.2,71.3,29.89,North,355,0.0,0.0,72,0.00,,,0.00,355,Wunderground v.1.15,2013-07-07 20:10:00,
2013-07-07 16:11:00,81.2,70.9,29.89,North,355,0.0,0.0,71,0.00,,,0.00,316,Wunderground v.1.15,2013-07-07 20:11:00,
2013-07-07 16:13:00,81.4,71.5,29.89,North,355,0.0,0.0,72,0.00,,,0.00,524,Wunderground v.1.15,2013-07-07 20:13:00,
2013-07-07 16:16:00,81.5,71.6,29.89,North,355,0.0,0.0,72,0.00,,,0.00,682,Wunderground v.1.15,2013-07-07 20:16:00,
2013-07-07 16:17:00,81.6,71.7,29.89,North,355,0.0,0.0,72,0.00,,,0.00,666,Wunderground v.1.15,2013-07-07 20:17:00,
2013-07-07 16:19:00,81.8,71.5,29.89,North,355,0.0,0.0,71,0.00,,,0.00,411,Wunderground v.1.15,2013-07-07 20:19:00,
2013-07-07 16:20:00,81.9,71.2,29.89,North,355,0.0,0.0,70,0.00,,,0.00,408,Wunderground v.1.15,2013-07-07 20:20:00,
2013-07-07 16:21:00,82.0,71.2,29.89,North,355,0.0,0.0,70,0.00,,,0.00,396,Wunderground v.1.15,2013-07-07 20:21:00,
2013-07-07 16:24:00,82.2,71.0,29.89,North,355,0.0,0.0,69,0.00,,,0.00,385,Wunderground v.1.15,2013-07-07 20:24:00,
2013-07-07 16:26:00,82.3,71.1,29.89,North,355,0.0,0.0,69,0.00,,,0.00,461,Wunderground v.1.15,2013-07-07 20:26:00,
2013-07-07 16:27:00,82.4,71.2,29.89,North,355,0.0,0.0,69,0.00,,,0.00,461,Wunderground v.1.15,2013-07-07 20:27:00,
2013-07-07 16:28:00,82.4,71.2,29.89,North,355,0.0,0.0,69,0.00,,,0.00,461,Wunderground v.1.15,2013-07-07 20:28:00,
2013-07-07 16:31:00,82.5,70.9,29.89,North,355,0.0,0.0,68,0.00,,,0.00,243,Wunderground v.1.15,2013-07-07 20:31:00,
2013-07-07 16:34:00,82.5,69.5,29.89,North,355,0.0,0.0,65,0.00,,,0.00,257,Wunderground v.1.15,2013-07-07 20:34:00,
2013-07-07 16:35:00,82.5,69.5,29.89,North,355,0.0,0.0,65,0.00,,,0.00,257,Wunderground v.1.15,2013-07-07 20:35:00,
2013-07-07 16:36:00,82.4,69.0,29.89,North,355,0.0,0.0,64,0.00,,,0.00,285,Wunderground v.1.15,2013-07-07 20:36:00,
2013-07-07 16:37:00,82.4,69.4,29.89,North,355,0.0,0.0,65,0.00,,,0.00,257,Wunderground v.1.15,2013-07-07 20:37:00,
2013-07-07 16:40:00,82.3,68.9,29.89,North,355,0.0,0.0,64,0.00,,,0.00,318,Wunderground v.1.15,2013-07-07 20:40:00,
2013-07-07 16:42:00,82.3,69.4,29.89,North,355,0.0,0.0,65,0.00,,,0.00,272,Wunderground v.1.15,2013-07-07 20:42:00,
2013-07-07 16:44:00,82.3,70.2,29.88,North,355,0.0,0.0,67,0.00,,,0.00,367,Wunderground v.1.15,2013-07-07 20:44:00,
2013-07-07 16:46:00,82.3,70.2,29.88,North,355,0.0,0.0,67,0.00,,,0.00,271,Wunderground v.1.15,2013-07-07 20:46:00,
2013-07-07 16:47:00,82.3,69.8,29.88,North,355,0.0,0.0,66,0.00,,,0.00,253,Wunderground v.1.15,2013-07-07 20:47:00,
2013-07-07 16:48:00,82.3,68.9,29.88,North,355,0.0,0.0,64,0.00,,,0.00,357,Wunderground v.1.15,2013-07-07 20:48:00,
2013-07-07 16:50:00,82.3,69.4,29.89,North,355,0.0,0.0,65,0.00,,,0.00,369,Wunderground v.1.15,2013-07-07 20:50:00,
2013-07-07 16:53:00,82.4,69.4,29.88,North,355,0.0,0.0,65,0.00,,,0.00,663,Wunderground v.1.15,2013-07-07 20:53:00,
2013-07-07 16:54:00,82.4,69.0,29.88,North,355,0.0,0.0,64,0.00,,,0.00,615,Wunderground v.1.15,2013-07-07 20:54:00,
2013-07-07 16:55:00,82.5,69.1,29.88,North,355,0.0,0.0,64,0.00,,,0.00,566,Wunderground v.1.15,2013-07-07 20:55:00,
2013-07-07 16:57:00,82.7,69.3,29.88,North,355,0.0,0.0,64,0.00,,,0.00,592,Wunderground v.1.15,2013-07-07 20:57:00,
2013-07-07 17:00:00,83.0,69.6,29.88,North,355,0.0,0.0,64,0.00,,,0.00,541,Wunderground v.1.15,2013-07-07 21:00:00,
2013-07-07 17:01:00,83.1,69.2,29.88,North,355,0.0,0.0,63,0.00,,,0.00,570,Wunderground v.1.15,2013-07-07 21:01:00,
2013-07-07 17:04:00,83.4,69.5,29.88,North,355,0.0,0.0,63,0.00,,,0.00,568,Wunderground v.1.15,2013-07-07 21:04:00,
2013-07-07 17:07:00,83.6,69.2,29.88,North,355,0.0,0.0,62,0.00,,,0.00,420,Wunderground v.1.15,2013-07-07 21:07:00,
2013-07-07 17:08:00,83.7,69.3,29.88,North,355,0.0,0.0,62,0.00,,,0.00,420,Wunderground v.1.15,2013-07-07 21:08:00,
2013-07-07 17:12:00,83.9,69.0,29.88,North,355,0.0,0.0,61,0.00,,,0.00,206,Wunderground v.1.15,2013-07-07 21:12:00,
2013-07-07 17:16:00,83.8,69.4,29.88,North,355,0.0,0.0,62,0.00,,,0.00,199,Wunderground v.1.15,2013-07-07 21:16:00,
2013-07-07 17:17:00,83.8,69.9,29.88,North,355,0.0,0.0,63,0.00,,,0.00,179,Wunderground v.1.15,2013-07-07 21:17:00,
2013-07-07 17:18:00,83.8,69.4,29.88,North,355,0.0,0.0,62,0.00,,,0.00,179,Wunderground v.1.15,2013-07-07 21:18:00,
2013-07-07 17:19:00,83.7,69.3,29.88,North,355,0.0,0.0,62,0.00,,,0.00,151,Wunderground v.1.15,2013-07-07 21:19:00,
2013-07-07 17:20:00,83.7,69.3,29.88,North,355,0.0,0.0,62,0.00,,,0.00,141,Wunderground v.1.15,2013-07-07 21:20:00,
2013-07-07 17:25:00,83.3,68.0,29.89,North,355,0.0,0.0,60,0.00,,,0.00,132,Wunderground v.1.15,2013-07-07 21:25:00,
2013-07-07 17:26:00,83.2,68.3,29.89,North,355,0.0,0.0,61,0.00,,,0.00,137,Wunderground v.1.15,2013-07-07 21:26:00,
2013-07-07 17:27:00,83.2,68.8,29.89,North,355,0.0,0.0,62,0.00,,,0.00,141,Wunderground v.1.15,2013-07-07 21:27:00,
2013-07-07 17:29:00,83.0,68.6,29.88,North,355,0.0,0.0,62,0.00,,,0.00,137,Wunderground v.1.15,2013-07-07 21:29:00,
2013-07-07 17:32:00,82.8,68.4,29.89,North,355,0.0,0.0,62,0.00,,,0.00,190,Wunderground v.1.15,2013-07-07 21:32:00,
2013-07-07 17:36:00,82.5,68.6,29.89,North,355,0.0,0.0,63,0.00,,,0.00,253,Wunderground v.1.15,2013-07-07 21:36:00,
2013-07-07 17:37:00,82.5,68.6,29.89,North,355,0.0,0.0,63,0.00,,,0.00,221,Wunderground v.1.15,2013-07-07 21:37:00,
2013-07-07 17:38:00,82.4,69.0,29.88,North,355,0.0,0.0,64,0.00,,,0.00,221,Wunderground v.1.15,2013-07-07 21:38:00,
2013-07-07 17:42:00,82.3,69.4,29.88,North,355,0.0,0.0,65,0.00,,,0.00,169,Wunderground v.1.15,2013-07-07 21:42:00,
2013-07-07 17:44:00,82.2,68.8,29.88,North,355,0.0,0.0,64,0.00,,,0.00,141,Wunderground v.1.15,2013-07-07 21:44:00,
2013-07-07 17:46:00,82.1,68.7,29.89,North,355,0.0,0.0,64,0.00,,,0.00,130,Wunderground v.1.15,2013-07-07 21:46:00,
2013-07-07 17:47:00,82.1,68.7,29.89,North,355,0.0,0.0,64,0.00,,,0.00,123,Wunderground v.1.15,2013-07-07 21:47:00,
2013-07-07 17:51:00,81.9,68.5,29.89,North,355,0.0,0.0,64,0.00,,,0.00,102,Wunderground v.1.15,2013-07-07 21:51:00,
2013-07-07 17:52:00,81.9,68.5,29.89,North,355,0.0,0.0,64,0.00,,,0.00,97,Wunderground v.1.15,2013-07-07 21:52:00,
2013-07-07 17:54:00,81.8,68.4,29.89,North,355,0.0,0.0,64,0.00,,,0.00,86,Wunderground v.1.15,2013-07-07 21:54:00,
2013-07-07 17:58:00,81.5,68.1,29.89,North,355,0.0,0.0,64,0.00,,,0.00,70,Wunderground v.1.15,2013-07-07 21:58:00,
2013-07-07 17:59:00,81.5,68.6,29.89,North,355,0.0,0.0,65,0.00,,,0.00,72,Wunderground v.1.15,2013-07-07 21:59:00,
2013-07-07 18:00:00,81.4,68.5,29.89,North,355,0.0,0.0,65,0.00,,,0.00,74,Wunderground v.1.15,2013-07-07 22:00:00,
2013-07-07 18:01:00,81.4,68.5,29.89,North,355,0.0,0.0,65,0.00,,,0.00,76,Wunderground v.1.15,2013-07-07 22:01:00,
2013-07-07 18:03:00,81.3,68.4,29.89,North,355,0.0,0.0,65,0.00,,,0.00,79,Wunderground v.1.15,2013-07-07 22:03:00,
2013-07-07 18:06:00,81.1,68.2,29.89,North,355,0.0,0.0,65,0.00,,,0.00,77,Wunderground v.1.15,2013-07-07 22:06:00,
2013-07-07 18:08:00,80.9,68.0,29.89,North,355,0.0,0.0,65,0.00,,,0.00,79,Wunderground v.1.15,2013-07-07 22:08:00,
2013-07-07 18:09:00,80.8,67.9,29.88,North,355,0.0,0.0,65,0.00,,,0.00,81,Wunderground v.1.15,2013-07-07 22:09:00,
2013-07-07 18:13:00,80.6,68.2,29.89,North,355,0.0,0.0,66,0.00,,,0.00,102,Wunderground v.1.15,2013-07-07 22:13:00,
2013-07-07 18:14:00,80.5,68.1,29.89,North,355,0.0,0.0,66,0.00,,,0.00,120,Wunderground v.1.15,2013-07-07 22:14:00,
2013-07-07 18:15:00,80.5,68.1,29.89,North,355,0.0,0.0,66,0.00,,,0.00,134,Wunderground v.1.15,2013-07-07 22:15:00,
2013-07-07 18:18:00,80.4,68.0,29.88,North,355,0.0,0.0,66,0.00,,,0.00,221,Wunderground v.1.15,2013-07-07 22:18:00,
2013-07-07 18:19:00,80.3,67.9,29.88,North,355,0.0,0.0,66,0.00,,,0.00,153,Wunderground v.1.15,2013-07-07 22:19:00,
2013-07-07 18:20:00,80.3,67.9,29.88,North,355,0.0,0.0,66,0.00,,,0.00,135,Wunderground v.1.15,2013-07-07 22:20:00,
2013-07-07 18:21:00,80.3,67.9,29.88,North,355,0.0,0.0,66,0.00,,,0.00,123,Wunderground v.1.15,2013-07-07 22:21:00,
2013-07-07 18:26:00,80.2,67.4,29.88,North,355,0.0,0.0,65,0.00,,,0.00,76,Wunderground v.1.15,2013-07-07 22:26:00,
2013-07-07 18:27:00,80.2,66.9,29.88,North,355,0.0,0.0,64,0.00,,,0.00,72,Wunderground v.1.15,2013-07-07 22:27:00,
2013-07-07 18:28:00,80.2,66.9,29.88,North,355,0.0,0.0,64,0.00,,,0.00,70,Wunderground v.1.15,2013-07-07 22:28:00,
2013-07-07 18:29:00,80.2,67.4,29.88,North,355,0.0,0.0,65,0.00,,,0.00,72,Wunderground v.1.15,2013-07-07 22:29:00,
2013-07-07 18:33:00,80.1,67.3,29.88,North,355,0.0,0.0,65,0.00,,,0.00,86,Wunderground v.1.15,2013-07-07 22:33:00,
2013-07-07 18:36:00,80.0,67.6,29.88,North,355,0.0,0.0,66,0.00,,,0.00,88,Wunderground v.1.15,2013-07-07 22:36:00,
2013-07-07 18:37:00,80.0,67.6,29.88,North,355,0.0,0.0,66,0.00,,,0.00,90,Wunderground v.1.15,2013-07-07 22:37:00,
2013-07-07 18:38:00,79.9,67.5,29.88,North,355,0.0,0.0,66,0.00,,,0.00,90,Wunderground v.1.15,2013-07-07 22:38:00,
2013-07-07 18:41:00,79.9,67.5,29.88,North,355,0.0,0.0,66,0.00,,,0.00,95,Wunderground v.1.15,2013-07-07 22:41:00,
2013-07-07 18:43:00,79.8,67.4,29.88,North,355,0.0,0.0,66,0.00,,,0.00,93,Wunderground v.1.15,2013-07-07 22:43:00,
2013-07-07 18:44:00,79.8,67.4,29.88,North,355,0.0,0.0,66,0.00,,,0.00,91,Wunderground v.1.15,2013-07-07 22:44:00,
2013-07-07 18:45:00,79.8,67.9,29.88,North,355,0.0,0.0,67,0.00,,,0.00,90,Wunderground v.1.15,2013-07-07 22:45:00,
2013-07-07 18:49:00,79.8,67.0,29.88,North,355,0.0,0.0,65,0.00,,,0.00,97,Wunderground v.1.15,2013-07-07 22:49:00,
2013-07-07 18:50:00,79.8,67.4,29.88,North,355,0.0,0.0,66,0.00,,,0.00,88,Wunderground v.1.15,2013-07-07 22:50:00,
2013-07-07 18:51:00,79.8,67.4,29.88,North,355,0.0,0.0,66,0.00,,,0.00,91,Wunderground v.1.15,2013-07-07 22:51:00,
2013-07-07 18:54:00,79.8,67.9,29.88,North,355,0.0,0.0,67,0.00,,,0.00,86,Wunderground v.1.15,2013-07-07 22:54:00,
2013-07-07 18:55:00,79.8,67.9,29.88,North,355,0.0,0.0,67,0.00,,,0.00,83,Wunderground v.1.15,2013-07-07 22:55:00,
2013-07-07 18:58:00,79.9,68.0,29.89,North,355,0.0,0.0,67,0.00,,,0.00,69,Wunderground v.1.15,2013-07-07 22:58:00,
2013-07-07 19:01:00,79.9,68.0,29.89,North,355,0.0,0.0,67,0.00,,,0.00,53,Wunderground v.1.15,2013-07-07 23:01:00,
2013-07-07 19:02:00,79.9,68.0,29.88,North,355,0.0,0.0,67,0.00,,,0.00,42,Wunderground v.1.15,2013-07-07 23:02:00,
2013-07-07 19:04:00,79.9,67.5,29.88,North,355,0.0,0.0,66,0.00,,,0.00,37,Wunderground v.1.15,2013-07-07 23:04:00,
2013-07-07 19:07:00,79.8,67.9,29.89,North,355,0.0,0.0,67,0.00,,,0.00,39,Wunderground v.1.15,2013-07-07 23:07:00,
2013-07-07 19:08:00,79.8,67.9,29.89,North,355,0.0,0.0,67,0.00,,,0.00,46,Wunderground v.1.15,2013-07-07 23:08:00,
2013-07-07 19:11:00,79.7,67.8,29.89,North,355,0.0,0.0,67,0.00,,,0.00,69,Wunderground v.1.15,2013-07-07 23:11:00,
2013-07-07 19:12:00,79.7,68.2,29.89,North,355,0.0,0.0,68,0.00,,,0.00,72,Wunderground v.1.15,2013-07-07 23:12:00,
2013-07-07 19:15:00,79.6,68.1,29.89,North,355,0.0,0.0,68,0.00,,,0.00,77,Wunderground v.1.15,2013-07-07 23:15:00,
2013-07-07 19:16:00,79.6,67.7,29.89,North,355,0.0,0.0,67,0.00,,,0.00,72,Wunderground v.1.15,2013-07-07 23:16:00,
2013-07-07 19:18:00,79.5,68.0,29.89,North,355,0.0,0.0,68,0.00,,,0.00,65,Wunderground v.1.15,2013-07-07 23:18:00,
2013-07-07 19:20:00,79.4,67.5,29.89,North,355,0.0,0.0,67,0.00,,,0.00,40,Wunderground v.1.15,2013-07-07 23:20:00,
2013-07-07 19:21:00,79.4,67.5,29.89,North,355,0.0,0.0,67,0.00,,,0.00,32,Wunderground v.1.15,2013-07-07 23:21:00,
2013-07-07 19:23:00,79.3,67.8,29.89,North,355,0.0,0.0,68,0.00,,,0.00,23,Wunderground v.1.15,2013-07-07 23:23:00,
2013-07-07 19:25:00,79.2,67.7,29.89,North,355,0.0,0.0,68,0.00,,,0.00,21,Wunderground v.1.15,2013-07-07 23:25:00,
2013-07-07 19:26:00,79.2,68.1,29.89,SSW,200,0.0,0.0,69,0.00,,,0.00,21,Wunderground v.1.15,2013-07-07 23:26:00,
2013-07-07 19:28:00,79.1,68.1,29.89,SSW,200,0.0,0.0,69,0.00,,,0.00,23,Wunderground v.1.15,2013-07-07 23:28:00,
2013-07-07 19:31:00,79.0,68.4,29.89,SSW,200,0.0,0.0,70,0.00,,,0.00,28,Wunderground v.1.15,2013-07-07 23:31:00,
2013-07-07 19:32:00,78.9,68.7,29.89,SSW,200,0.0,0.0,71,0.00,,,0.00,30,Wunderground v.1.15,2013-07-07 23:32:00,
2013-07-07 19:34:00,78.9,68.7,29.89,SSW,200,0.0,0.0,71,0.00,,,0.00,37,Wunderground v.1.15,2013-07-07 23:34:00,
2013-07-07 19:35:00,78.8,68.6,29.89,SSW,200,0.0,0.0,71,0.00,,,0.00,40,Wunderground v.1.15,2013-07-07 23:35:00,
2013-07-07 19:37:00,78.8,68.6,29.89,SSW,200,0.0,0.0,71,0.00,,,0.00,46,Wunderground v.1.15,2013-07-07 23:37:00,
2013-07-07 19:41:00,78.7,68.9,29.89,SSW,200,0.0,0.0,72,0.00,,,0.00,42,Wunderground v.1.15,2013-07-07 23:41:00,
2013-07-07 19:42:00,78.6,68.8,29.89,SSW,200,0.0,0.0,72,0.00,,,0.00,42,Wunderground v.1.15,2013-07-07 23:42:00,
2013-07-07 19:43:00,78.6,68.8,29.89,SSW,200,0.0,0.0,72,0.00,,,0.00,39,Wunderground v.1.15,2013-07-07 23:43:00,
2013-07-07 19:47:00,78.5,68.7,29.89,SSW,200,0.0,0.0,72,0.00,,,0.00,32,Wunderground v.1.15,2013-07-07 23:47:00,
2013-07-07 19:49:00,78.4,68.6,29.89,SSW,200,0.0,0.0,72,0.00,,,0.00,33,Wunderground v.1.15,2013-07-07 23:49:00,
2013-07-07 19:52:00,78.3,68.9,29.89,SSW,200,0.0,0.0,73,0.00,,,0.00,40,Wunderground v.1.15,2013-07-07 23:52:00,
2013-07-07 19:53:00,78.2,68.8,29.89,SSW,200,0.0,0.0,73,0.00,,,0.00,42,Wunderground v.1.15,2013-07-07 23:53:00,
2013-07-07 19:56:00,78.2,68.8,29.89,SSW,200,0.0,0.0,73,0.00,,,0.00,49,Wunderground v.1.15,2013-07-07 23:56:00,
2013-07-07 19:57:00,78.1,68.7,29.89,SSW,200,0.0,0.0,73,0.00,,,0.00,47,Wunderground v.1.15,2013-07-07 23:57:00,
2013-07-07 20:01:00,78.0,69.0,29.89,SSW,200,0.0,0.0,74,0.00,,,0.00,44,Wunderground v.1.15,2013-07-08 00:01:00,
2013-07-07 20:02:00,77.9,68.5,29.89,SSW,200,0.0,0.0,73,0.00,,,0.00,42,Wunderground v.1.15,2013-07-08 00:02:00,
2013-07-07 20:03:00,77.9,68.9,29.89,SSW,200,0.0,0.0,74,0.00,,,0.00,42,Wunderground v.1.15,2013-07-08 00:03:00,
2013-07-07 20:04:00,77.9,68.9,29.89,SSW,200,0.0,0.0,74,0.00,,,0.00,40,Wunderground v.1.15,2013-07-08 00:04:00,
2013-07-07 20:06:00,77.8,68.8,29.89,SSW,200,0.0,0.0,74,0.00,,,0.00,37,Wunderground v.1.15,2013-07-08 00:06:00,
2013-07-07 20:08:00,77.8,68.0,29.89,SSW,200,0.0,0.0,72,0.00,,,0.00,28,Wunderground v.1.15,2013-07-08 00:08:00,
2013-07-07 20:09:00,77.7,67.5,29.89,SSW,200,0.0,0.0,71,0.00,,,0.00,26,Wunderground v.1.15,2013-07-08 00:09:00,
2013-07-07 20:10:00,77.7,67.1,29.89,SSW,200,0.0,0.0,70,0.00,,,0.00,25,Wunderground v.1.15,2013-07-08 00:10:00,
2013-07-07 20:11:00,77.7,67.1,29.89,SSW,200,0.0,0.0,70,0.00,,,0.00,25,Wunderground v.1.15,2013-07-08 00:11:00,
2013-07-07 20:15:00,77.7,66.7,29.89,NW,325,0.0,0.0,69,0.00,,,0.00,25,Wunderground v.1.15,2013-07-08 00:15:00,
2013-07-07 20:16:00,77.7,66.7,29.89,NW,325,0.0,0.0,69,0.00,,,0.00,25,Wunderground v.1.15,2013-07-08 00:16:00,
2013-07-07 20:18:00,77.7,66.7,29.89,NW,325,0.0,0.0,69,0.00,,,0.00,23,Wunderground v.1.15,2013-07-08 00:18:00,
2013-07-07 20:20:00,77.7,66.7,29.89,NW,325,0.0,0.0,69,0.00,,,0.00,21,Wunderground v.1.15,2013-07-08 00:20:00,
2013-07-07 20:21:00,77.7,66.7,29.89,NE,43,0.0,0.0,69,0.00,,,0.00,21,Wunderground v.1.15,2013-07-08 00:21:00,
2013-07-07 20:24:00,77.7,67.1,29.89,NE,43,0.0,0.0,70,0.00,,,0.00,23,Wunderground v.1.15,2013-07-08 00:24:00,
2013-07-07 20:27:00,77.7,67.1,29.89,NE,43,0.0,0.0,70,0.00,,,0.00,26,Wunderground v.1.15,2013-07-08 00:27:00,
2013-07-07 20:28:00,77.7,67.1,29.89,NE,43,0.0,0.0,70,0.00,,,0.00,26,Wunderground v.1.15,2013-07-08 00:28:00,
2013-07-07 20:32:00,77.7,67.1,29.89,NE,43,0.0,0.0,70,0.00,,,0.00,25,Wunderground v.1.15,2013-07-08 00:32:00,
2013-07-07 20:34:00,77.7,67.1,29.89,NE,43,0.0,0.0,70,0.00,,,0.00,25,Wunderground v.1.15,2013-07-08 00:34:00,
2013-07-07 20:35:00,77.6,67.0,29.89,NE,43,0.0,0.0,70,0.00,,,0.00,25,Wunderground v.1.15,2013-07-08 00:35:00,
2013-07-07 20:36:00,77.6,67.0,29.89,NE,43,0.0,0.0,70,0.00,,,0.00,23,Wunderground v.1.15,2013-07-08 00:36:00,
2013-07-07 20:38:00,77.6,67.0,29.90,NE,43,0.0,0.0,70,0.00,,,0.00,23,Wunderground v.1.15,2013-07-08 00:38:00,
2013-07-07 20:41:00,77.5,66.9,29.89,NE,43,0.0,0.0,70,0.00,,,0.00,18,Wunderground v.1.15,2013-07-08 00:41:00,
2013-07-07 20:43:00,77.5,66.9,29.90,NE,43,0.0,0.0,70,0.00,,,0.00,14,Wunderground v.1.15,2013-07-08 00:43:00,
2013-07-07 20:44:00,77.5,66.9,29.90,NE,43,0.0,0.0,70,0.00,,,0.00,12,Wunderground v.1.15,2013-07-08 00:44:00,
2013-07-07 20:46:00,77.4,67.3,29.90,NE,43,0.0,0.0,71,0.00,,,0.00,11,Wunderground v.1.15,2013-07-08 00:46:00,
2013-07-07 20:48:00,77.4,67.3,29.90,NNE,13,0.0,0.0,71,0.00,,,0.00,12,Wunderground v.1.15,2013-07-08 00:48:00,
2013-07-07 20:50:00,77.3,67.2,29.90,NNE,14,0.0,0.0,71,0.00,,,0.00,14,Wunderground v.1.15,2013-07-08 00:50:00,
2013-07-07 20:51:00,77.2,66.7,29.90,NNE,14,0.0,0.0,70,0.00,,,0.00,14,Wunderground v.1.15,2013-07-08 00:51:00,
2013-07-07 20:54:00,77.1,66.6,29.90,NNE,14,0.0,0.0,70,0.00,,,0.00,14,Wunderground v.1.15,2013-07-08 00:54:00,
2013-07-07 20:56:00,77.1,66.6,29.90,NNE,14,0.0,0.0,70,0.00,,,0.00,14,Wunderground v.1.15,2013-07-08 00:56:00,
2013-07-07 20:57:00,77.0,66.5,29.90,NNE,14,0.0,0.0,70,0.00,,,0.00,14,Wunderground v.1.15,2013-07-08 00:57:00,
2013-07-07 20:59:00,77.0,66.9,29.90,NNE,14,0.0,0.0,71,0.00,,,0.00,11,Wunderground v.1.15,2013-07-08 00:59:00,
2013-07-07 21:00:00,77.0,66.9,29.90,NNE,14,0.0,0.0,71,0.00,,,0.00,11,Wunderground v.1.15,2013-07-08 01:00:00,
2013-07-07 21:02:00,76.9,66.8,29.90,NNE,14,0.0,0.0,71,0.00,,,0.00,7,Wunderground v.1.15,2013-07-08 01:02:00,
2013-07-07 21:03:00,76.9,66.8,29.90,NNE,14,0.0,0.0,71,0.00,,,0.00,7,Wunderground v.1.15,2013-07-08 01:03:00,
2013-07-07 21:07:00,76.8,67.1,29.90,NNE,14,0.0,0.0,72,0.00,,,0.00,7,Wunderground v.1.15,2013-07-08 01:07:00,
2013-07-07 21:08:00,76.8,67.1,29.90,NNE,14,0.0,0.0,72,0.00,,,0.00,7,Wunderground v.1.15,2013-07-08 01:08:00,
2013-07-07 21:09:00,76.7,67.0,29.90,NNE,14,0.0,0.0,72,0.00,,,0.00,5,Wunderground v.1.15,2013-07-08 01:09:00,
2013-07-07 21:10:00,76.7,67.0,29.90,NNE,14,0.0,0.0,72,0.00,,,0.00,5,Wunderground v.1.15,2013-07-08 01:10:00,
2013-07-07 21:14:00,76.6,66.9,29.89,NNE,14,0.0,0.0,72,0.00,,,0.00,5,Wunderground v.1.15,2013-07-08 01:14:00,
2013-07-07 21:15:00,76.6,66.9,29.89,NNE,14,0.0,0.0,72,0.00,,,0.00,0,Wunderground v.1.15,2013-07-08 01:15:00,
2013-07-07 21:18:00,76.4,67.1,29.89,NNE,14,0.0,0.0,73,0.00,,,0.00,0,Wunderground v.1.15,2013-07-08 01:18:00,
2013-07-07 21:19:00,76.4,67.1,29.89,NNE,14,0.0,0.0,73,0.00,,,0.00,0,Wunderground v.1.15,2013-07-08 01:19:00,
2013-07-07 21:21:00,76.4,67.1,29.89,NNE,14,0.0,0.0,73,0.00,,,0.00,0,Wunderground v.1.15,2013-07-08 01:21:00,
2013-07-07 21:24:00,76.2,66.9,29.89,NNW,346,0.0,0.0,73,0.00,,,0.00,0,Wunderground v.1.15,2013-07-08 01:24:00,
2013-07-07 21:25:00,76.1,66.8,29.89,NNW,346,0.0,0.0,73,0.00,,,0.00,0,Wunderground v.1.15,2013-07-08 01:25:00,
2013-07-07 21:27:00,76.1,67.2,29.89,NNW,346,0.0,0.0,74,0.00,,,0.00,0,Wunderground v.1.15,2013-07-08 01:27:00,
2013-07-07 21:28:00,76.0,67.1,29.89,NNW,346,0.0,0.0,74,0.00,,,0.00,0,Wunderground v.1.15,2013-07-08 01:28:00,
2013-07-07 21:30:00,76.0,67.1,29.89,NNW,346,0.0,0.0,74,0.00,,,0.00,0,Wunderground v.1.15,2013-07-08 01:30:00,
2013-07-07 21:33:00,75.8,66.9,29.89,NNW,346,0.0,0.0,74,0.00,,,0.00,0,Wunderground v.1.15,2013-07-08 01:33:00,
2013-07-07 21:34:00,75.8,66.9,29.89,NNW,346,0.0,0.0,74,0.00,,,0.00,0,Wunderground v.1.15,2013-07-08 01:34:00,
2013-07-07 21:37:00,75.7,67.2,29.89,NNW,346,0.0,0.0,75,0.00,,,0.00,0,Wunderground v.1.15,2013-07-08 01:37:00,
2013-07-07 21:39:00,75.6,67.1,29.89,NNW,346,0.0,0.0,75,0.00,,,0.00,0,Wunderground v.1.15,2013-07-08 01:39:00,
2013-07-07 21:40:00,75.5,67.0,29.90,NNW,346,0.0,0.0,75,0.00,,,0.00,0,Wunderground v.1.15,2013-07-08 01:40:00,
2013-07-07 21:41:00,75.5,67.0,29.90,NNW,346,0.0,0.0,75,0.00,,,0.00,0,Wunderground v.1.15,2013-07-08 01:41:00,
2013-07-07 21:46:00,75.3,67.2,29.90,NNW,346,0.0,0.0,76,0.00,,,0.00,0,Wunderground v.1.15,2013-07-08 01:46:00,
2013-07-07 21:47:00,75.3,67.2,29.90,NNW,346,0.0,0.0,76,0.00,,,0.00,0,Wunderground v.1.15,2013-07-08 01:47:00,
2013-07-07 21:48:00,75.2,67.1,29.90,NNW,346,0.0,0.0,76,0.00,,,0.00,0,Wunderground v.1.15,2013-07-08 01:48:00,
2013-07-07 21:49:00,75.2,67.1,29.90,NNW,346,0.0,0.0,76,0.00,,,0.00,0,Wunderground v.1.15,2013-07-08 01:49:00,
2013-07-07 21:50:00,75.2,67.1,29.90,NNW,346,0.0,0.0,76,0.00,,,0.00,0,Wunderground v.1.15,2013-07-08 01:50:00,
2013-07-07 21:54:00,75.1,67.0,29.90,NNW,346,0.0,0.0,76,0.00,,,0.00,0,Wunderground v.1.15,2013-07-08 01:54:00,
2013-07-07 21:56:00,75.1,67.0,29.90,NNW,346,0.0,0.0,76,0.00,,,0.00,0,Wunderground v.1.15,2013-07-08 01:56:00,
2013-07-07 22:00:00,74.9,67.2,29.90,NNW,346,0.0,0.0,77,0.00,,,0.00,0,Wunderground v.1.15,2013-07-08 02:00:00,
2013-07-07 22:01:00,74.9,67.2,29.90,NNW,346,0.0,0.0,77,0.00,,,0.00,0,Wunderground v.1.15,2013-07-08 02:01:00,
2013-07-07 22:05:00,74.7,67.0,29.91,NNW,346,0.0,0.0,77,0.00,,,0.00,0,Wunderground v.1.15,2013-07-08 02:05:00,
2013-07-07 22:06:00,74.7,67.0,29.91,NNW,346,0.0,0.0,77,0.00,,,0.00,0,Wunderground v.1.15,2013-07-08 02:06:00,
2013-07-07 22:08:00,74.6,66.9,29.91,NNW,346,0.0,0.0,77,0.00,,,0.00,0,Wunderground v.1.15,2013-07-08 02:08:00,
2013-07-07 22:11:00,74.6,66.9,29.91,NNW,346,0.0,0.0,77,0.00,,,0.00,0,Wunderground v.1.15,2013-07-08 02:11:00,
2013-07-07 22:12:00,74.5,66.8,29.91,NNW,346,0.0,0.0,77,0.00,,,0.00,0,Wunderground v.1.15,2013-07-08 02:12:00,
2013-07-07 22:13:00,74.5,66.8,29.91,NNW,346,0.0,0.0,77,0.00,,,0.00,0,Wunderground v.1.15,2013-07-08 02:13:00,
2013-07-07 22:15:00,74.4,66.7,29.91,NNW,346,0.0,0.0,77,0.00,,,0.00,0,Wunderground v.1.15,2013-07-08 02:15:00,
2013-07-07 22:17:00,74.4,67.1,29.91,NNW,346,0.0,0.0,78,0.00,,,0.00,0,Wunderground v.1.15,2013-07-08 02:17:00,
2013-07-07 22:20:00,74.3,67.0,29.91,NNW,346,0.0,0.0,78,0.00,,,0.00,0,Wunderground v.1.15,2013-07-08 02:20:00,
2013-07-07 22:21:00,74.2,66.9,29.91,NNW,346,0.0,0.0,78,0.00,,,0.00,0,Wunderground v.1.15,2013-07-08 02:21:00,
2013-07-07 22:22:00,74.2,66.9,29.91,NNW,346,0.0,0.0,78,0.00,,,0.00,0,Wunderground v.1.15,2013-07-08 02:22:00,
2013-07-07 22:23:00,74.2,66.9,29.91,NNW,346,0.0,0.0,78,0.00,,,0.00,0,Wunderground v.1.15,2013-07-08 02:23:00,
2013-07-07 22:26:00,74.0,66.7,29.91,NNW,346,0.0,0.0,78,0.00,,,0.00,0,Wunderground v.1.15,2013-07-08 02:26:00,
2013-07-07 22:28:00,74.0,66.7,29.91,NNW,346,0.0,0.0,78,0.00,,,0.00,0,Wunderground v.1.15,2013-07-08 02:28:00,
2013-07-07 22:29:00,73.9,66.6,29.91,NNW,346,0.0,0.0,78,0.00,,,0.00,0,Wunderground v.1.15,2013-07-08 02:29:00,
2013-07-07 22:31:00,73.9,66.6,29.91,NNW,346,0.0,0.0,78,0.00,,,0.00,0,Wunderground v.1.15,2013-07-08 02:31:00,
2013-07-07 22:32:00,73.9,66.6,29.91,NNW,346,0.0,0.0,78,0.00,,,0.00,0,Wunderground v.1.15,2013-07-08 02:32:00,
2013-07-07 22:38:00,73.7,66.8,29.91,NNW,346,0.0,0.0,79,0.00,,,0.00,0,Wunderground v.1.15,2013-07-08 02:38:00,
2013-07-07 22:39:00,73.6,66.7,29.92,NNW,346,0.0,0.0,79,0.00,,,0.00,0,Wunderground v.1.15,2013-07-08 02:39:00,
2013-07-07 22:42:00,73.6,67.0,29.91,NNW,346,0.0,0.0,80,0.00,,,0.00,0,Wunderground v.1.15,2013-07-08 02:42:00,
2013-07-07 22:43:00,73.6,67.0,29.92,NNW,346,0.0,0.0,80,0.00,,,0.00,0,Wunderground v.1.15,2013-07-08 02:43:00,
2013-07-07 22:44:00,73.5,66.9,29.91,NNW,346,0.0,0.0,80,0.00,,,0.00,0,Wunderground v.1.15,2013-07-08 02:44:00,
2013-07-07 22:45:00,73.5,66.9,29.91,NNW,346,0.0,0.0,80,0.00,,,0.00,0,Wunderground v.1.15,2013-07-08 02:45:00,
2013-07-07 22:46:00,73.5,66.9,29.91,NNW,346,0.0,0.0,80,0.00,,,0.00,0,Wunderground v.1.15,2013-07-08 02:46:00,
2013-07-07 22:49:00,73.5,66.9,29.92,NNW,346,0.0,0.0,80,0.00,,,0.00,0,Wunderground v.1.15,2013-07-08 02:49:00,
2013-07-07 22:51:00,73.5,67.3,29.92,NNW,346,0.0,0.0,81,0.00,,,0.00,0,Wunderground v.1.15,2013-07-08 02:51:00,
2013-07-07 22:52:00,73.5,67.3,29.92,NNW,346,0.0,0.0,81,0.00,,,0.00,0,Wunderground v.1.15,2013-07-08 02:52:00,
2013-07-07 22:55:00,73.5,67.3,29.92,NNW,346,0.0,0.0,81,0.00,,,0.00,0,Wunderground v.1.15,2013-07-08 02:55:00,
2013-07-07 22:57:00,73.5,67.3,29.91,NNW,346,0.0,0.0,81,0.00,,,0.00,0,Wunderground v.1.15,2013-07-08 02:57:00,
2013-07-07 22:59:00,73.5,67.3,29.92,NNW,346,0.0,0.0,81,0.00,,,0.00,0,Wunderground v.1.15,2013-07-08 02:59:00,
2013-07-07 23:01:00,73.5,67.3,29.91,NNW,346,0.0,0.0,81,0.00,,,0.00,0,Wunderground v.1.15,2013-07-08 03:01:00,
2013-07-07 23:05:00,73.4,67.2,29.91,NNW,346,0.0,0.0,81,0.00,,,0.00,0,Wunderground v.1.15,2013-07-08 03:05:00,
2013-07-07 23:06:00,73.4,67.2,29.91,NNW,346,0.0,0.0,81,0.00,,,0.00,0,Wunderground v.1.15,2013-07-08 03:06:00,
2013-07-07 23:07:00,73.4,67.2,29.92,NNW,346,0.0,0.0,81,0.00,,,0.00,0,Wunderground v.1.15,2013-07-08 03:07:00,
2013-07-07 23:11:00,73.3,67.1,29.92,NNW,346,0.0,0.0,81,0.00,,,0.00,0,Wunderground v.1.15,2013-07-08 03:11:00,
2013-07-07 23:12:00,73.3,67.1,29.92,NNW,346,0.0,0.0,81,0.00,,,0.00,0,Wunderground v.1.15,2013-07-08 03:12:00,
2013-07-07 23:14:00,73.3,67.1,29.92,NNW,346,0.0,0.0,81,0.00,,,0.00,0,Wunderground v.1.15,2013-07-08 03:14:00,
2013-07-07 23:17:00,73.2,67.0,29.92,NNW,346,0.0,0.0,81,0.00,,,0.00,0,Wunderground v.1.15,2013-07-08 03:17:00,
2013-07-07 23:19:00,73.2,67.4,29.92,NNW,346,0.0,0.0,82,0.00,,,0.00,0,Wunderground v.1.15,2013-07-08 03:19:00,
2013-07-07 23:20:00,73.1,67.3,29.92,NNW,346,0.0,0.0,82,0.00,,,0.00,0,Wunderground v.1.15,2013-07-08 03:20:00,
2013-07-07 23:22:00,73.1,67.3,29.92,NNW,346,0.0,0.0,82,0.00,,,0.00,0,Wunderground v.1.15,2013-07-08 03:22:00,
2013-07-07 23:23:00,73.1,67.3,29.92,NNW,346,0.0,0.0,82,0.00,,,0.00,0,Wunderground v.1.15,2013-07-08 03:23:00,
2013-07-07 23:25:00,73.0,67.2,29.92,NNW,346,0.0,0.0,82,0.00,,,0.00,0,Wunderground v.1.15,2013-07-08 03:25:00,
2013-07-07 23:26:00,73.0,67.2,29.92,NNW,346,0.0,0.0,82,0.00,,,0.00,0,Wunderground v.1.15,2013-07-08 03:26:00,
2013-07-07 23:29:00,72.9,67.1,29.92,NNW,346,0.0,0.0,82,0.00,,,0.00,0,Wunderground v.1.15,2013-07-08 03:29:00,
2013-07-07 23:31:00,72.9,67.1,29.92,NNW,346,0.0,0.0,82,0.00,,,0.00,0,Wunderground v.1.15,2013-07-08 03:31:00,
2013-07-07 23:33:00,72.8,67.0,29.92,NNW,346,0.0,0.0,82,0.00,,,0.00,0,Wunderground v.1.15,2013-07-08 03:33:00,
2013-07-07 23:35:00,72.7,67.2,29.92,NNW,346,0.0,0.0,83,0.00,,,0.00,0,Wunderground v.1.15,2013-07-08 03:35:00,
2013-07-07 23:36:00,72.7,67.2,29.92,NNW,346,0.0,0.0,83,0.00,,,0.00,0,Wunderground v.1.15,2013-07-08 03:36:00,
2013-07-07 23:37:00,72.7,67.2,29.92,NNW,346,0.0,0.0,83,0.00,,,0.00,0,Wunderground v.1.15,2013-07-08 03:37:00,
2013-07-07 23:39:00,72.7,67.2,29.92,NNW,346,0.0,0.0,83,0.00,,,0.00,0,Wunderground v.1.15,2013-07-08 03:39:00,
2013-07-07 23:40:00,72.6,67.5,29.92,NNW,346,0.0,0.0,84,0.00,,,0.00,0,Wunderground v.1.15,2013-07-08 03:40:00,
2013-07-07 23:43:00,72.6,67.8,29.92,NNW,346,0.0,0.0,85,0.00,,,0.00,0,Wunderground v.1.15,2013-07-08 03:43:00,
2013-07-07 23:45:00,72.6,67.8,29.92,NNW,346,0.0,0.0,85,0.00,,,0.00,0,Wunderground v.1.15,2013-07-08 03:45:00,
2013-07-07 23:46:00,72.5,67.7,29.92,NNW,346,0.0,0.0,85,0.00,,,0.00,0,Wunderground v.1.15,2013-07-08 03:46:00,
2013-07-07 23:50:00,72.4,67.6,29.93,NNW,346,0.0,0.0,85,0.00,,,0.00,0,Wunderground v.1.15,2013-07-08 03:50:00,
2013-07-07 23:51:00,72.4,67.6,29.93,NNW,346,0.0,0.0,85,0.00,,,0.00,0,Wunderground v.1.15,2013-07-08 03:51:00,
2013-07-07 23:52:00,72.4,67.6,29.93,NNW,346,0.0,0.0,85,0.00,,,0.00,0,Wunderground v.1.15,2013-07-08 03:52:00,
2013-07-07 23:56:00,72.5,67.4,29.93,NNW,346,0.0,0.0,84,0.00,,,0.00,0,Wunderground v.1.15,2013-07-08 03:56:00,
2013-07-07 23:58:00,72.6,67.5,29.93,NNW,346,0.0,0.0,84,0.00,,,0.00,0,Wunderground v.1.15,2013-07-08 03:58:00,